GFSNE_prec_kuchsnow24_060.txt.gz
Snowfall_Accumulation
0.0 0.0 0.0 0.0 0.0 0.0 0.0 0.0 0.2 0.3 0.1 0.0 0.0 0.0 0.0 0.0 0.0 0.0 0.0 0.0 0.0 0.0 0.0 0.0 0.0 0.0 0.0 0.0 0.0 0.0 0.0 0.0 0.0 0.0 0.0 0.0 0.0 0.0
0.0 0.0 0.0 0.0 0.0 0.0 0.0 0.0 0.0 0.0 0.0 0.0 0.0 0.0 0.0 0.0 0.0 0.0 0.0 0.0 0.0 0.0 0.0 0.0 0.0 0.0 0.0 0.0 0.0 0.0 0.0 0.0 0.0 0.0 0.0 0.0 0.0 0.0
0.0 0.0 0.0 0.0 0.0 0.0 0.0 0.0 0.0 0.0 0.0 0.0 0.0 0.0 0.0 0.0 0.0 0.0 0.0 0.0 0.0 0.0 0.0 0.0 0.0 0.0 0.0 0.0 0.0 0.0 0.0 0.0 0.0 0.0 0.0 0.0 0.0 0.0
0.0 0.0 0.0 0.0 0.0 0.0 0.0 0.0 0.0 0.0 0.0 0.0 0.0 0.0 0.0 0.0 0.0 0.0 0.0 0.0 0.0 0.0 0.0 0.0 0.0 0.0 0.0 0.0 0.0 0.0 0.0 0.0 0.0 0.0 0.0 0.0 0.0 0.0
0.0 0.0 0.0 0.0 0.0 0.0 0.0 0.0 0.0 0.0 0.0 0.0 0.0 0.0 0.0 0.0 0.0 0.0 0.0 0.0 0.0 0.0 0.0 0.0 0.0 0.0 0.0 0.0 0.0 0.0 0.0 0.0 0.0 0.0 0.0 0.0 0.0 0.0
0.0 0.0 0.0 0.0 0.0 0.0 0.0 0.0 0.0 0.0 0.0 0.0 0.0 0.0 0.0 0.0 0.0 0.0 0.0 0.0 0.0 0.0 0.0 0.0 0.0 0.0 0.0 0.0 0.0 0.0 0.0 0.0 0.0 0.0 0.0 0.0 0.0 0.0
0.0 0.0 0.0 0.0 0.0 0.0 0.0 0.0 0.0 0.0 0.0 0.0 0.0 0.0 0.0 0.0 0.0 0.0 0.0 0.0 0.0 0.0 0.0 0.0 0.0 0.0 0.0 0.0 0.0 0.0 0.0 0.0 0.0 0.0 0.0 0.0 0.0 0.0
0.0 0.0 0.0 0.0 0.0 0.0 0.0 0.0 0.0 0.0 0.0 0.0 0.0 0.0 0.0 0.0 0.0 0.0 0.0 0.1 0.3 0.0 0.0 0.0 0.0 0.0 0.0 0.0 0.0 0.0 0.0 0.0 0.0 0.0 0.0 0.0 0.0 0.0
0.0 0.0 0.0 0.0 0.0 0.0 0.0 0.0 0.0 0.0 0.0 0.0 0.0 0.0 0.0 0.0 0.0 0.0 0.1 0.4 0.3 0.0 0.0 0.0 0.0 0.0 0.0 0.0 0.0 0.0 0.0 0.0 0.0 0.0 0.0 0.0 0.0 0.0
0.0 0.0 0.0 0.0 0.0 0.0 0.0 0.0 0.0 0.0 0.0 0.0 0.0 0.0 0.0 0.0 0.0 0.0 0.3 0.3 0.0 0.0 0.0 0.1 0.0 0.0 0.0 0.0 0.0 0.0 0.0 0.0 0.0 0.0 0.0 0.0 0.0 0.0
0.0 0.0 0.0 0.0 0.0 0.0 0.0 0.0 0.0 0.0 0.0 0.0 0.0 0.0 0.0 0.0 0.0 0.0 0.1 0.4 0.2 0.0 0.0 0.1 0.0 0.0 0.0 0.0 0.0 0.0 0.0 0.0 0.0 0.0 0.0 0.0 0.0 0.0
0.0 0.0 0.0 0.0 0.0 0.0 0.0 0.0 0.0 0.0 0.0 0.0 0.0 0.0 0.0 0.0 0.0 0.0 0.0 0.4 0.5 0.2 0.0 0.1 0.0 0.4 0.7 0.0 0.0 0.0 0.0 0.0 0.0 0.0 0.0 0.0 0.0 0.0
0.0 0.0 0.0 0.0 0.0 0.0 0.0 0.1 0.0 0.0 0.0 0.0 0.1 0.2 0.0 0.0 0.0 0.0 0.0 0.9 1.7 1.5 0.0 0.5 1.0 0.3 1.0 0.2 0.0 0.0 0.0 0.0 0.0 0.0 0.0 0.0 0.0 0.0
0.0 0.0 0.0 0.0 0.0 0.0 0.0 0.0 0.0 0.1 0.2 0.2 0.4 0.3 0.3 0.5 0.2 0.1 0.3 0.2 0.3 0.4 0.2 0.7 1.3 0.7 0.9 0.4 0.0 0.0 0.0 0.0 0.0 0.0 0.0 0.0 0.1 0.1
0.0 0.0 0.0 0.0 0.0 0.1 0.1 0.0 0.2 0.7 0.7 0.9 0.9 0.1 0.0 0.0 0.1 0.3 0.2 0.0 0.1 0.0 0.0 0.3 0.2 0.1 0.0 0.3 0.3 0.0 0.0 0.0 0.0 0.1 0.3 0.3 1.1 0.8
0.0 0.0 0.0 0.2 0.0 0.3 0.2 0.4 0.5 0.4 0.6 0.5 0.2 0.0 0.0 0.2 0.3 0.1 0.1 0.3 0.9 0.1 0.0 0.3 0.1 0.0 0.0 0.0 0.2 0.0 0.2 0.5 0.0 0.1 0.4 1.3 1.2 1.9
0.2 0.3 0.5 0.6 0.1 0.4 0.3 0.3 0.2 0.4 0.8 0.5 0.5 0.7 0.3 0.8 0.6 0.6 0.8 0.6 1.5 0.3 0.0 0.2 0.0 0.0 0.0 0.0 0.0 0.2 0.2 0.2 0.2 0.1 0.5 2.7 2.6 3.0
1.7 1.3 0.6 0.6 0.6 0.1 0.2 0.6 0.3 0.6 0.4 0.5 0.5 0.4 1.1 1.4 2.0 1.5 1.6 2.9 2.1 1.3 0.8 0.2 0.1 0.2 0.1 0.0 0.1 0.3 0.2 0.1 0.0 0.0 0.2 3.2 4.2 6.3
2.0 0.1 0.7 0.7 0.5 0.4 0.4 0.8 0.6 0.1 0.2 0.6 1.1 0.9 0.8 0.8 1.0 1.1 0.7 0.4 0.7 0.1 0.0 0.0 0.2 0.2 0.1 0.2 0.1 0.1 0.3 0.0 0.2 0.1 0.1 1.2 3.5 3.6
0.4 0.3 0.6 0.6 0.1 0.3 0.7 0.8 0.8 0.2 0.8 0.4 0.8 0.5 1.0 1.3 1.7 1.0 0.7 1.7 1.0 0.0 0.0 0.0 0.1 0.0 0.5 0.6 0.6 0.0 0.2 1.0 0.4 0.2 0.0 0.0 0.4 1.7
0.7 0.7 0.3 0.7 1.4 1.8 1.4 2.0 2.7 3.0 1.3 3.9 3.3 3.6 4.0 4.3 3.8 2.2 4.1 3.3 2.2 0.8 0.3 0.0 0.0 0.0 0.2 0.8 1.2 0.5 0.5 0.3 0.6 0.4 0.1 0.0 0.0 0.0
1.0 1.2 0.1 1.4 1.9 2.3 2.7 2.6 2.8 2.6 3.1 3.0 2.9 1.8 2.0 1.8 2.2 1.3 2.2 2.2 1.2 0.8 0.1 0.0 0.0 0.0 0.0 0.2 0.6 0.6 0.5 0.5 0.0 0.0 0.0 0.2 0.3 0.3
1.5 1.6 1.9 2.2 2.1 2.0 2.3 2.2 2.1 1.9 2.3 2.8 2.7 2.2 2.0 2.7 1.9 1.9 1.6 1.4 1.2 0.8 0.4 0.5 0.4 0.1 0.0 0.0 0.2 0.4 0.5 0.1 0.2 0.2 0.3 0.2 0.2 0.2

GFSNE_prec_kuchsnow24_063.txt.gz
Snowfall_Accumulation
0.0 0.0 0.0 0.0 0.0 0.0 0.0 0.0 0.0 0.0 0.0 0.0 0.0 0.0 0.0 0.0 0.0 0.0 0.0 0.0 0.0 0.0 0.0 0.0 0.0 0.0 0.0 0.0 0.0 0.0 0.0 0.0 0.0 0.0 0.0 0.0 0.0 0.0
0.0 0.0 0.0 0.0 0.0 0.0 0.0 0.0 0.0 0.0 0.0 0.0 0.0 0.0 0.0 0.0 0.0 0.0 0.0 0.0 0.0 0.0 0.0 0.0 0.0 0.0 0.0 0.0 0.0 0.0 0.0 0.0 0.0 0.0 0.0 0.0 0.0 0.0
0.0 0.0 0.0 0.0 0.0 0.0 0.0 0.0 0.0 0.0 0.0 0.0 0.0 0.0 0.0 0.0 0.0 0.0 0.0 0.0 0.0 0.0 0.0 0.0 0.0 0.0 0.0 0.0 0.0 0.0 0.0 0.0 0.0 0.0 0.0 0.0 0.0 0.0
0.0 0.0 0.0 0.0 0.0 0.0 0.0 0.0 0.0 0.0 0.0 0.0 0.0 0.0 0.0 0.0 0.0 0.0 0.0 0.0 0.0 0.0 0.0 0.0 0.0 0.0 0.0 0.0 0.0 0.0 0.0 0.0 0.0 0.0 0.0 0.0 0.0 0.0
0.0 0.0 0.0 0.0 0.0 0.0 0.0 0.0 0.0 0.0 0.0 0.0 0.0 0.0 0.0 0.0 0.0 0.0 0.0 0.0 0.0 0.0 0.0 0.0 0.0 0.0 0.0 0.0 0.0 0.0 0.0 0.0 0.0 0.0 0.0 0.0 0.0 0.0
0.0 0.0 0.0 0.0 0.0 0.0 0.0 0.0 0.0 0.0 0.0 0.0 0.0 0.0 0.0 0.0 0.0 0.0 0.0 0.0 0.0 0.0 0.0 0.0 0.0 0.0 0.0 0.0 0.0 0.0 0.0 0.0 0.0 0.0 0.0 0.0 0.0 0.0
0.0 0.0 0.0 0.0 0.0 0.0 0.0 0.0 0.0 0.0 0.0 0.0 0.0 0.0 0.0 0.0 0.0 0.0 0.0 0.0 0.0 0.0 0.0 0.0 0.0 0.0 0.0 0.0 0.0 0.0 0.0 0.0 0.0 0.0 0.0 0.0 0.0 0.0
0.0 0.0 0.0 0.0 0.0 0.0 0.0 0.0 0.0 0.0 0.0 0.0 0.0 0.0 0.0 0.0 0.0 0.0 0.0 0.1 0.2 0.0 0.0 0.0 0.0 0.0 0.0 0.0 0.0 0.0 0.0 0.0 0.0 0.0 0.0 0.0 0.0 0.0
0.0 0.0 0.0 0.0 0.0 0.0 0.0 0.0 0.0 0.0 0.0 0.0 0.0 0.0 0.0 0.0 0.0 0.0 0.1 0.4 0.1 0.0 0.0 0.0 0.0 0.0 0.0 0.0 0.0 0.0 0.0 0.0 0.0 0.0 0.0 0.0 0.0 0.0
0.0 0.0 0.0 0.0 0.0 0.0 0.0 0.0 0.0 0.0 0.0 0.0 0.0 0.0 0.0 0.0 0.0 0.0 0.0 0.0 0.0 0.0 0.0 0.3 0.0 0.0 0.0 0.0 0.0 0.0 0.0 0.0 0.0 0.0 0.0 0.0 0.0 0.0
0.0 0.0 0.0 0.0 0.0 0.0 0.0 0.0 0.0 0.0 0.0 0.0 0.0 0.0 0.0 0.0 0.0 0.0 0.1 0.4 0.3 0.0 0.0 0.1 0.0 0.0 0.0 0.0 0.0 0.0 0.0 0.0 0.0 0.0 0.0 0.0 0.0 0.0
0.0 0.0 0.0 0.0 0.0 0.0 0.0 0.0 0.0 0.0 0.0 0.0 0.0 0.0 0.0 0.0 0.0 0.0 0.0 0.6 0.7 0.4 0.0 0.1 0.0 0.2 0.5 0.0 0.0 0.0 0.0 0.0 0.0 0.0 0.0 0.0 0.0 0.0
0.0 0.0 0.0 0.0 0.0 0.0 0.0 0.1 0.0 0.0 0.0 0.0 0.1 0.2 0.0 0.0 0.0 0.0 0.0 0.9 2.1 1.5 0.0 0.3 1.5 1.1 1.7 1.0 0.0 0.0 0.0 0.0 0.0 0.0 0.0 0.0 0.0 0.0
0.0 0.0 0.0 0.0 0.0 0.0 0.0 0.0 0.0 0.1 0.2 0.2 0.4 0.3 0.3 0.5 0.2 0.1 0.3 0.2 0.3 0.4 0.2 1.1 2.1 1.2 1.6 1.1 0.2 0.0 0.0 0.0 0.0 0.0 0.0 0.0 0.1 0.1
0.0 0.0 0.0 0.0 0.0 0.1 0.1 0.0 0.2 0.7 0.7 0.9 0.9 0.1 0.0 0.0 0.1 0.3 0.2 0.0 0.1 0.0 0.0 0.3 0.6 0.7 0.8 0.5 0.1 0.0 0.0 0.0 0.0 0.1 0.1 0.0 0.9 0.7
0.0 0.0 0.0 0.0 0.0 0.3 0.2 0.4 0.5 0.4 0.6 0.5 0.2 0.0 0.0 0.2 0.3 0.1 0.1 0.3 0.9 0.1 0.0 0.3 0.5 0.6 0.5 0.1 0.0 0.0 0.2 0.5 0.0 0.1 0.0 0.8 1.0 1.8
0.2 0.0 0.2 0.4 0.1 0.4 0.3 0.3 0.2 0.4 0.8 0.5 0.5 0.7 0.3 0.8 0.6 0.6 0.8 0.6 1.7 0.3 0.0 0.2 0.5 0.6 0.2 0.0 0.0 0.1 0.2 0.2 0.2 0.1 0.5 1.7 1.8 2.5
1.0 0.8 0.6 0.6 0.5 0.0 0.2 0.6 0.3 0.6 0.4 0.5 0.5 0.4 1.1 1.4 2.0 1.5 1.6 2.9 2.4 1.3 0.8 1.0 1.1 0.8 0.4 0.1 0.0 0.2 0.2 0.1 0.0 0.0 0.2 2.1 2.9 4.4
1.4 0.1 0.7 0.6 0.5 0.3 0.4 0.8 0.6 0.1 0.2 0.6 1.1 0.9 0.8 0.8 1.0 1.1 0.7 0.4 0.7 0.1 0.0 0.3 0.6 0.5 0.4 0.2 0.1 0.1 0.3 0.0 0.2 0.1 0.1 0.8 2.4 2.7
0.4 0.3 0.6 0.6 0.1 0.2 0.7 0.8 0.8 0.2 0.8 0.4 0.8 0.5 1.0 1.3 1.7 1.0 0.7 1.8 1.4 0.0 0.0 0.3 0.1 0.0 0.3 0.4 0.4 0.0 0.2 0.6 0.4 0.2 0.0 0.0 0.0 0.8
0.7 0.7 0.3 0.6 1.2 1.6 1.4 2.0 2.7 3.0 1.3 3.9 3.3 3.6 4.0 4.3 3.8 2.2 4.1 3.3 3.3 2.9 1.9 0.5 0.1 0.0 0.1 0.5 0.8 0.4 0.5 0.3 0.2 0.3 0.1 0.0 0.0 0.0
1.0 1.2 0.1 1.0 1.6 2.0 2.7 2.6 2.8 2.6 3.1 3.0 2.9 1.8 2.0 1.8 2.2 1.3 2.2 2.2 2.0 2.0 1.1 0.5 0.4 0.3 0.2 0.0 0.4 0.4 0.4 0.4 0.0 0.0 0.0 0.1 0.3 0.3
1.5 1.6 1.6 1.8 1.8 1.8 2.1 2.1 2.1 1.9 2.3 2.8 2.7 2.2 2.0 2.7 1.9 1.9 1.6 1.4 1.9 1.5 1.1 1.0 0.9 0.4 0.0 0.0 0.0 0.2 0.3 0.0 0.1 0.2 0.2 0.1 0.1 0.1

GFSNE_prec_kuchsnow24_066.txt.gz
Snowfall_Accumulation
0.0 0.0 0.0 0.0 0.0 0.0 0.0 0.0 0.0 0.0 0.0 0.0 0.0 0.0 0.0 0.0 0.0 0.0 0.0 0.0 0.0 0.0 0.0 0.0 0.0 0.0 0.0 0.0 0.0 0.0 0.0 0.0 0.0 0.0 0.0 0.0 0.0 0.0
0.0 0.0 0.0 0.0 0.0 0.0 0.0 0.0 0.0 0.0 0.0 0.0 0.0 0.0 0.0 0.0 0.0 0.0 0.0 0.0 0.0 0.0 0.0 0.0 0.0 0.0 0.0 0.0 0.0 0.0 0.0 0.0 0.0 0.0 0.0 0.0 0.0 0.0
0.0 0.0 0.0 0.0 0.0 0.0 0.0 0.0 0.0 0.0 0.0 0.0 0.0 0.0 0.0 0.0 0.0 0.0 0.0 0.0 0.0 0.0 0.0 0.0 0.0 0.0 0.0 0.0 0.0 0.0 0.0 0.0 0.0 0.0 0.0 0.0 0.0 0.0
0.0 0.0 0.0 0.0 0.0 0.0 0.0 0.0 0.0 0.0 0.0 0.0 0.0 0.0 0.0 0.0 0.0 0.0 0.0 0.0 0.0 0.0 0.0 0.0 0.0 0.0 0.0 0.0 0.0 0.0 0.0 0.0 0.0 0.0 0.0 0.0 0.0 0.0
0.0 0.0 0.0 0.0 0.0 0.0 0.0 0.0 0.0 0.0 0.0 0.0 0.0 0.0 0.0 0.0 0.0 0.0 0.0 0.0 0.0 0.0 0.0 0.0 0.0 0.0 0.0 0.0 0.0 0.0 0.0 0.0 0.0 0.0 0.0 0.0 0.0 0.0
0.0 0.0 0.0 0.0 0.0 0.0 0.0 0.0 0.0 0.0 0.0 0.0 0.0 0.0 0.0 0.0 0.0 0.0 0.0 0.0 0.0 0.0 0.0 0.0 0.0 0.0 0.0 0.0 0.0 0.0 0.0 0.0 0.0 0.0 0.0 0.0 0.0 0.0
0.0 0.0 0.0 0.0 0.0 0.0 0.0 0.0 0.0 0.0 0.0 0.0 0.0 0.0 0.0 0.0 0.0 0.0 0.0 0.0 0.0 0.0 0.0 0.0 0.0 0.0 0.0 0.0 0.0 0.0 0.0 0.0 0.0 0.0 0.0 0.0 0.0 0.0
0.0 0.0 0.0 0.0 0.0 0.0 0.0 0.0 0.0 0.0 0.0 0.0 0.0 0.0 0.0 0.0 0.0 0.0 0.0 0.1 0.2 0.0 0.0 0.0 0.0 0.0 0.0 0.0 0.0 0.0 0.0 0.0 0.0 0.0 0.0 0.0 0.0 0.0
0.0 0.0 0.0 0.0 0.0 0.0 0.0 0.0 0.0 0.0 0.0 0.0 0.0 0.0 0.0 0.0 0.0 0.0 0.1 0.2 0.1 0.0 0.0 0.0 0.0 0.0 0.0 0.0 0.0 0.0 0.0 0.0 0.0 0.0 0.0 0.0 0.0 0.0
0.0 0.0 0.0 0.0 0.0 0.0 0.0 0.0 0.0 0.0 0.0 0.0 0.0 0.0 0.0 0.0 0.0 0.0 0.0 0.0 0.0 0.0 0.0 0.3 0.0 0.0 0.0 0.0 0.0 0.0 0.0 0.0 0.0 0.0 0.0 0.0 0.0 0.0
0.0 0.0 0.0 0.0 0.0 0.0 0.0 0.0 0.0 0.0 0.0 0.0 0.0 0.0 0.0 0.0 0.0 0.0 0.1 0.4 0.3 0.0 0.0 0.1 0.0 0.0 0.0 0.0 0.0 0.0 0.0 0.0 0.1 0.0 0.0 0.0 0.0 0.0
0.0 0.0 0.0 0.0 0.0 0.0 0.0 0.0 0.0 0.0 0.0 0.0 0.0 0.0 0.0 0.0 0.0 0.0 0.0 0.6 0.7 0.4 0.0 0.1 0.0 0.1 0.5 0.0 0.0 0.0 0.0 0.0 0.0 0.0 0.0 0.0 0.0 0.0
0.0 0.0 0.0 0.0 0.0 0.0 0.0 0.1 0.0 0.0 0.0 0.0 0.1 0.2 0.0 0.0 0.0 0.0 0.0 0.9 2.1 1.5 0.0 0.2 1.4 1.1 1.7 1.1 0.0 0.0 0.0 0.4 0.2 0.0 0.0 0.0 0.0 0.0
0.0 0.0 0.0 0.0 0.0 0.0 0.0 0.0 0.0 0.1 0.2 0.2 0.4 0.3 0.3 0.5 0.2 0.1 0.3 0.2 0.3 0.4 0.2 1.1 2.4 1.3 1.3 1.7 0.7 0.0 0.3 0.0 0.0 0.0 0.0 0.0 0.0 0.0
0.0 0.0 0.0 0.0 0.0 0.1 0.0 0.0 0.2 0.7 0.7 0.9 0.9 0.1 0.0 0.0 0.1 0.3 0.2 0.0 0.1 0.0 0.0 0.3 0.6 0.6 1.3 1.2 0.8 0.3 0.1 0.0 0.0 0.1 0.1 0.0 0.2 0.5
0.0 0.0 0.0 0.0 0.0 0.0 0.0 0.2 0.4 0.4 0.6 0.5 0.2 0.0 0.0 0.2 0.3 0.1 0.1 0.3 0.9 0.1 0.0 0.3 0.5 1.5 1.3 0.6 0.9 0.5 0.1 0.4 0.0 0.1 0.0 0.2 0.6 1.7
0.2 0.0 0.2 0.2 0.1 0.1 0.1 0.2 0.1 0.4 0.8 0.5 0.5 0.7 0.3 0.8 0.6 0.6 0.8 0.6 1.7 0.3 0.0 0.2 0.5 0.9 0.5 0.3 0.3 0.1 0.2 0.2 0.2 0.1 0.1 0.7 1.3 2.1
0.7 0.7 0.6 0.6 0.5 0.0 0.2 0.3 0.1 0.6 0.4 0.5 0.5 0.4 1.1 1.4 2.0 1.5 1.6 2.9 2.4 1.3 0.8 1.0 1.1 1.4 0.9 0.4 0.0 0.1 0.2 0.1 0.0 0.0 0.1 1.2 1.5 2.3
0.6 0.0 0.7 0.6 0.5 0.3 0.4 0.5 0.2 0.1 0.2 0.6 1.1 0.9 0.8 0.8 1.0 1.1 0.7 0.4 0.7 0.1 0.0 0.3 0.6 1.3 1.1 0.5 0.2 0.0 0.2 0.0 0.1 0.1 0.1 0.5 1.3 1.5
0.2 0.2 0.6 0.6 0.1 0.2 0.3 0.4 0.5 0.1 0.8 0.4 0.8 0.5 1.0 1.3 1.7 1.0 0.7 1.8 1.4 0.0 0.0 0.3 0.1 0.7 0.5 0.2 0.3 0.0 0.0 0.2 0.2 0.1 0.0 0.0 0.0 0.2
0.6 0.8 0.6 0.8 1.3 1.8 1.5 1.7 2.5 3.0 1.3 3.9 3.3 3.6 4.0 4.3 3.8 2.2 4.1 3.3 3.3 2.9 1.9 0.5 0.1 1.1 0.9 0.4 0.6 0.2 0.4 0.1 0.0 0.1 0.1 0.0 0.0 0.0
1.1 1.6 0.6 1.5 1.9 2.2 2.4 2.2 2.6 2.5 3.1 3.0 2.9 1.8 2.0 1.8 2.2 1.3 2.2 2.2 2.0 2.0 1.1 0.5 0.4 1.2 0.7 0.1 0.1 0.2 0.2 0.4 0.0 0.0 0.0 0.1 0.2 0.2
1.4 1.8 1.9 1.9 1.8 1.5 1.6 1.6 1.8 1.8 2.3 2.8 2.7 2.2 2.0 2.7 1.9 1.9 1.6 1.4 1.9 1.5 1.1 1.8 1.7 1.5 0.5 0.2 0.0 0.1 0.1 0.0 0.1 0.2 0.2 0.0 0.0 0.0

GFSNE_prec_kuchsnow24_069.txt.gz
Snowfall_Accumulation
0.0 0.0 0.0 0.0 0.0 0.0 0.0 0.0 0.0 0.0 0.0 0.0 0.0 0.0 0.0 0.0 0.0 0.0 0.0 0.0 0.0 0.0 0.0 0.0 0.0 0.0 0.0 0.0 0.0 0.0 0.0 0.0 0.0 0.0 0.0 0.0 0.0 0.0
0.0 0.0 0.0 0.0 0.0 0.0 0.0 0.0 0.0 0.0 0.0 0.0 0.0 0.0 0.0 0.0 0.0 0.0 0.0 0.0 0.0 0.0 0.0 0.0 0.0 0.0 0.0 0.0 0.0 0.0 0.0 0.0 0.0 0.0 0.0 0.0 0.0 0.0
0.0 0.0 0.0 0.0 0.0 0.0 0.0 0.0 0.0 0.0 0.0 0.0 0.0 0.0 0.0 0.0 0.0 0.0 0.0 0.0 0.0 0.0 0.0 0.0 0.0 0.0 0.0 0.0 0.0 0.0 0.0 0.0 0.0 0.0 0.0 0.0 0.0 0.0
0.0 0.0 0.0 0.0 0.0 0.0 0.0 0.0 0.0 0.0 0.0 0.0 0.0 0.0 0.0 0.0 0.0 0.0 0.0 0.0 0.0 0.0 0.0 0.0 0.0 0.0 0.0 0.0 0.0 0.0 0.0 0.0 0.0 0.0 0.0 0.0 0.0 0.0
0.0 0.0 0.0 0.0 0.0 0.0 0.0 0.0 0.0 0.0 0.0 0.0 0.0 0.0 0.0 0.0 0.0 0.0 0.0 0.0 0.0 0.0 0.0 0.0 0.0 0.0 0.0 0.0 0.0 0.0 0.0 0.0 0.0 0.0 0.0 0.0 0.0 0.0
0.0 0.0 0.0 0.0 0.0 0.0 0.0 0.0 0.0 0.0 0.0 0.0 0.0 0.0 0.0 0.0 0.0 0.0 0.0 0.0 0.0 0.0 0.0 0.0 0.0 0.0 0.0 0.0 0.0 0.0 0.0 0.0 0.0 0.0 0.0 0.0 0.0 0.0
0.0 0.0 0.0 0.0 0.0 0.0 0.0 0.0 0.0 0.0 0.0 0.0 0.0 0.0 0.0 0.0 0.0 0.0 0.0 0.0 0.0 0.0 0.0 0.0 0.0 0.0 0.0 0.0 0.0 0.0 0.0 0.0 0.0 0.0 0.0 0.0 0.0 0.0
0.0 0.0 0.0 0.0 0.0 0.0 0.0 0.0 0.0 0.0 0.0 0.0 0.0 0.0 0.0 0.0 0.0 0.0 0.0 0.1 0.2 0.0 0.0 0.0 0.0 0.0 0.0 0.0 0.0 0.0 0.0 0.0 0.0 0.0 0.0 0.0 0.0 0.2
0.0 0.0 0.0 0.0 0.0 0.0 0.0 0.0 0.0 0.0 0.0 0.0 0.0 0.0 0.0 0.0 0.0 0.0 0.1 0.2 0.1 0.0 0.0 0.0 0.0 0.0 0.0 0.0 0.0 0.0 0.0 0.0 0.0 0.0 0.0 0.0 0.0 0.0
0.0 0.0 0.0 0.0 0.0 0.0 0.0 0.0 0.0 0.0 0.0 0.0 0.0 0.0 0.0 0.0 0.0 0.0 0.0 0.0 0.0 0.0 0.0 0.3 0.0 0.0 0.0 0.0 0.0 0.0 0.0 0.0 0.0 0.0 0.0 0.0 0.0 0.0
0.0 0.0 0.0 0.0 0.0 0.0 0.0 0.0 0.0 0.0 0.0 0.0 0.0 0.0 0.0 0.0 0.0 0.0 0.1 0.4 0.3 0.0 0.0 0.1 0.0 0.0 0.0 0.0 0.0 0.0 0.0 0.0 0.1 0.0 0.0 0.0 0.0 0.0
0.0 0.0 0.0 0.0 0.0 0.0 0.0 0.0 0.0 0.0 0.0 0.0 0.0 0.0 0.0 0.0 0.0 0.0 0.0 0.6 0.7 0.4 0.0 0.1 0.0 0.1 0.5 0.0 0.0 0.0 0.0 0.0 0.0 0.0 0.0 0.0 0.0 0.0
0.0 0.0 0.0 0.0 0.0 0.0 0.0 0.0 0.0 0.0 0.0 0.0 0.1 0.2 0.0 0.0 0.0 0.0 0.0 0.9 2.1 1.5 0.0 0.2 1.4 1.1 1.7 1.1 0.0 0.0 0.0 0.4 0.3 0.0 0.0 0.0 0.0 0.0
0.0 0.0 0.0 0.0 0.0 0.0 0.0 0.0 0.0 0.1 0.2 0.2 0.4 0.3 0.3 0.5 0.2 0.1 0.3 0.2 0.3 0.4 0.2 1.1 2.4 1.2 1.3 1.7 0.7 0.0 0.3 0.0 0.0 0.0 0.0 0.0 0.0 0.0
0.0 0.0 0.0 0.0 0.0 0.1 0.0 0.0 0.1 0.4 0.6 0.8 0.9 0.1 0.0 0.0 0.1 0.3 0.2 0.0 0.1 0.0 0.0 0.3 0.6 0.6 1.5 1.4 0.9 0.3 0.1 0.0 0.0 0.1 0.1 0.0 0.0 0.3
0.0 0.0 0.0 0.0 0.0 0.0 0.0 0.0 0.0 0.2 0.4 0.5 0.2 0.0 0.0 0.2 0.3 0.1 0.1 0.3 0.9 0.1 0.0 0.3 0.5 1.5 1.8 0.7 1.1 0.5 0.1 0.2 0.0 0.1 0.0 0.0 0.1 1.5
0.1 0.0 0.0 0.1 0.1 0.1 0.1 0.1 0.1 0.1 0.5 0.4 0.5 0.7 0.3 0.8 0.6 0.6 0.8 0.6 1.7 0.3 0.0 0.2 0.5 0.9 0.5 0.7 0.7 0.2 0.2 0.1 0.2 0.1 0.1 0.2 0.4 1.5
0.2 0.1 0.3 0.4 0.4 0.0 0.2 0.3 0.1 0.2 0.1 0.3 0.4 0.4 1.1 1.4 2.0 1.5 1.6 2.9 2.4 1.3 0.8 1.0 1.1 1.4 0.9 0.4 0.0 0.1 0.2 0.1 0.0 0.0 0.0 0.5 0.4 0.7
0.1 0.1 0.4 0.5 0.4 0.3 0.4 0.5 0.2 0.1 0.2 0.2 0.9 0.8 0.8 0.8 1.0 1.1 0.7 0.4 0.7 0.1 0.0 0.3 0.6 1.3 1.4 0.7 0.2 0.0 0.3 0.0 0.0 0.0 0.0 0.2 0.6 0.6
0.0 0.0 0.3 0.4 0.0 0.1 0.3 0.4 0.5 0.1 0.4 0.3 0.7 0.5 1.0 1.3 1.7 1.0 0.7 1.8 1.4 0.0 0.0 0.3 0.1 0.7 1.6 1.2 1.5 0.2 0.0 0.1 0.1 0.1 0.0 0.0 0.0 0.2
0.2 0.3 0.3 0.6 1.0 1.6 1.6 1.8 2.6 2.8 1.1 3.8 3.2 3.6 4.0 4.3 3.8 2.2 4.1 3.3 3.3 2.9 1.9 0.5 0.1 1.1 1.3 1.1 1.1 0.3 0.3 0.1 0.0 0.0 0.0 0.0 0.0 0.0
0.7 0.8 0.8 1.1 1.9 2.1 2.4 2.1 2.4 2.3 2.9 2.8 2.9 1.8 2.0 1.9 2.3 1.4 2.2 2.2 2.0 2.0 1.1 0.5 0.4 1.2 1.1 0.7 0.2 0.3 0.3 0.3 0.0 0.0 0.0 0.0 0.2 0.1
0.8 0.6 0.6 0.6 0.8 1.2 1.5 1.4 1.6 1.7 2.2 2.6 2.6 2.2 2.1 2.7 1.9 1.9 1.6 1.4 1.9 1.5 1.1 1.8 1.7 1.5 1.0 0.7 0.5 0.3 0.2 0.0 0.1 0.1 0.2 0.0 0.0 0.0

GFSNE_prec_kuchsnow24_072.txt.gz
Snowfall_Accumulation
0.0 0.0 0.0 0.0 0.0 0.0 0.0 0.0 0.0 0.0 0.0 0.0 0.0 0.0 0.0 0.0 0.0 0.0 0.0 0.0 0.0 0.0 0.0 0.0 0.0 0.0 0.0 0.0 0.0 0.0 0.0 0.0 0.0 0.0 0.0 0.0 0.0 0.0
0.0 0.0 0.0 0.0 0.0 0.0 0.0 0.0 0.0 0.0 0.0 0.0 0.0 0.0 0.0 0.0 0.0 0.0 0.0 0.0 0.0 0.0 0.0 0.0 0.0 0.0 0.0 0.0 0.0 0.0 0.0 0.0 0.0 0.0 0.0 0.0 0.0 0.0
0.0 0.0 0.0 0.0 0.0 0.0 0.0 0.0 0.0 0.0 0.0 0.0 0.0 0.0 0.0 0.0 0.0 0.0 0.0 0.0 0.0 0.0 0.0 0.0 0.0 0.0 0.0 0.0 0.0 0.0 0.0 0.0 0.0 0.0 0.0 0.0 0.0 0.0
0.0 0.0 0.0 0.0 0.0 0.0 0.0 0.0 0.0 0.0 0.0 0.0 0.0 0.0 0.0 0.0 0.0 0.0 0.0 0.0 0.0 0.0 0.0 0.0 0.0 0.0 0.0 0.0 0.0 0.0 0.0 0.0 0.0 0.0 0.0 0.0 0.0 0.0
0.0 0.0 0.0 0.0 0.0 0.0 0.0 0.0 0.0 0.0 0.0 0.0 0.0 0.0 0.0 0.0 0.0 0.0 0.0 0.0 0.0 0.0 0.0 0.0 0.0 0.0 0.0 0.0 0.0 0.0 0.0 0.0 0.0 0.0 0.0 0.0 0.0 0.0
0.0 0.0 0.0 0.0 0.0 0.0 0.0 0.0 0.0 0.0 0.0 0.0 0.0 0.0 0.0 0.0 0.0 0.0 0.0 0.0 0.0 0.0 0.0 0.0 0.0 0.0 0.0 0.0 0.0 0.0 0.0 0.0 0.0 0.0 0.0 0.0 0.0 0.0
0.0 0.0 0.0 0.0 0.0 0.0 0.0 0.0 0.0 0.0 0.0 0.0 0.0 0.0 0.0 0.0 0.0 0.0 0.0 0.0 0.0 0.0 0.0 0.0 0.0 0.0 0.0 0.0 0.0 0.0 0.0 0.0 0.0 0.0 0.0 0.0 0.0 0.0
0.0 0.0 0.0 0.0 0.0 0.0 0.0 0.0 0.0 0.0 0.0 0.0 0.0 0.0 0.0 0.0 0.0 0.0 0.0 0.1 0.2 0.0 0.0 0.0 0.0 0.0 0.0 0.0 0.0 0.0 0.0 0.0 0.0 0.0 0.0 0.0 0.0 0.2
0.0 0.0 0.0 0.0 0.0 0.0 0.0 0.0 0.0 0.0 0.0 0.0 0.0 0.0 0.0 0.0 0.0 0.0 0.1 0.2 0.1 0.0 0.0 0.0 0.0 0.0 0.0 0.0 0.0 0.0 0.0 0.0 0.0 0.0 0.0 0.0 0.0 0.0
0.0 0.0 0.0 0.0 0.0 0.0 0.0 0.0 0.0 0.0 0.0 0.0 0.0 0.0 0.0 0.0 0.0 0.0 0.0 0.0 0.0 0.0 0.0 0.3 0.0 0.0 0.0 0.0 0.0 0.0 0.0 0.0 0.0 0.0 0.0 0.0 0.0 0.0
0.0 0.0 0.0 0.0 0.0 0.0 0.0 0.0 0.0 0.0 0.0 0.0 0.0 0.0 0.0 0.0 0.0 0.0 0.1 0.4 0.3 0.0 0.0 0.1 0.0 0.0 0.0 0.0 0.0 0.0 0.0 0.0 0.1 0.0 0.0 0.0 0.0 0.0
0.0 0.0 0.0 0.0 0.0 0.0 0.0 0.0 0.0 0.0 0.0 0.0 0.0 0.0 0.0 0.0 0.0 0.0 0.0 0.6 0.7 0.4 0.0 0.1 0.0 0.1 0.5 0.0 0.0 0.0 0.0 0.0 0.0 0.0 0.0 0.0 0.0 0.0
0.0 0.0 0.0 0.0 0.5 0.2 0.0 0.0 0.0 0.0 0.0 0.0 0.1 0.2 0.0 0.0 0.0 0.0 0.0 0.9 2.1 1.5 0.0 0.2 1.4 1.1 1.7 1.1 0.0 0.0 0.0 0.4 0.3 0.0 0.0 0.0 0.0 0.0
0.0 0.0 0.8 0.8 0.4 0.1 0.0 0.0 0.0 0.1 0.1 0.1 0.3 0.3 0.3 0.5 0.2 0.1 0.3 0.2 0.3 0.4 0.2 1.1 2.4 1.2 1.3 1.7 0.7 0.0 0.3 0.0 0.0 0.0 0.0 0.0 0.0 0.0
1.1 1.0 0.8 0.4 0.1 0.0 0.0 0.0 0.0 0.3 0.4 0.5 0.7 0.1 0.0 0.0 0.1 0.3 0.2 0.0 0.1 0.0 0.0 0.3 0.6 0.6 1.5 1.4 0.9 0.3 0.1 0.0 0.0 0.1 0.1 0.0 0.0 0.3
0.8 0.4 0.1 0.0 0.0 0.0 0.0 0.0 0.0 0.1 0.3 0.3 0.1 0.0 0.0 0.2 0.3 0.1 0.1 0.3 0.8 0.1 0.0 0.3 0.5 1.5 1.8 0.7 1.1 0.5 0.1 0.2 0.0 0.1 0.0 0.0 0.1 1.2
0.2 0.0 0.1 0.0 0.0 0.0 0.0 0.0 0.0 0.0 0.3 0.2 0.3 0.6 0.2 0.7 0.6 0.6 0.8 0.6 1.6 0.3 0.0 0.2 0.5 0.9 0.5 0.7 0.7 0.2 0.1 0.1 0.2 0.1 0.1 0.1 0.1 0.7
0.2 0.1 0.3 0.3 0.3 0.1 0.2 0.2 0.0 0.1 0.1 0.2 0.2 0.1 0.9 1.3 1.9 1.5 1.6 2.8 2.4 1.3 0.8 1.0 1.1 1.4 0.9 0.4 0.0 0.1 0.1 0.1 0.0 0.0 0.0 0.2 0.0 0.1
0.3 0.4 0.4 0.5 0.4 0.3 0.3 0.3 0.0 0.0 0.2 0.2 0.8 0.6 0.6 0.7 1.0 1.0 0.6 0.3 0.7 0.1 0.0 0.3 0.6 1.3 1.4 0.6 0.1 0.0 0.7 0.3 0.1 0.2 0.0 0.1 0.2 0.3
0.2 0.2 0.1 0.2 0.0 0.1 0.2 0.3 0.4 0.0 0.4 0.2 0.7 0.4 0.9 1.2 1.6 0.9 0.7 1.8 1.4 0.0 0.0 0.3 0.1 0.7 1.6 1.3 1.8 0.2 0.0 0.1 0.7 0.2 0.1 0.0 0.0 0.2
0.2 0.3 0.3 0.4 0.5 0.3 0.7 1.5 2.4 2.7 1.0 3.7 3.1 3.5 3.8 4.2 3.7 2.2 4.1 3.3 3.3 2.9 1.9 0.5 0.1 1.1 1.3 1.1 1.4 0.1 0.2 0.1 0.0 0.3 0.1 0.1 0.1 0.0
0.7 0.8 0.8 0.7 0.6 0.4 0.8 1.2 2.1 2.3 2.8 2.7 2.8 1.7 1.8 1.7 2.3 1.4 2.2 2.2 2.0 2.0 1.1 0.5 0.4 1.2 1.1 1.0 0.2 0.6 0.1 0.8 0.1 0.2 0.1 0.0 0.1 0.2
0.7 0.5 0.5 0.5 0.2 0.2 0.2 0.5 0.9 1.4 2.1 2.5 2.5 2.0 1.8 2.7 1.9 1.9 1.6 1.4 1.9 1.4 1.1 1.8 1.7 1.5 1.0 0.7 0.5 0.3 0.2 1.4 0.2 0.1 0.1 0.0 0.0 0.0

GFSNE_prec_kuchsnow24_075.txt.gz
Snowfall_Accumulation
0.0 0.0 0.0 0.0 0.0 0.0 0.0 0.0 0.0 0.0 0.0 0.0 0.0 0.0 0.0 0.0 0.0 0.0 0.0 0.0 0.0 0.0 0.0 0.0 0.0 0.0 0.0 0.0 0.0 0.0 0.0 0.0 0.0 0.0 0.0 0.0 0.0 0.0
0.0 0.0 0.0 0.0 0.0 0.0 0.0 0.0 0.0 0.0 0.0 0.0 0.0 0.0 0.0 0.0 0.0 0.0 0.0 0.0 0.0 0.0 0.0 0.0 0.0 0.0 0.0 0.0 0.0 0.0 0.0 0.0 0.0 0.0 0.0 0.0 0.0 0.0
0.0 0.0 0.0 0.0 0.0 0.0 0.0 0.0 0.0 0.0 0.0 0.0 0.0 0.0 0.0 0.0 0.0 0.0 0.0 0.0 0.0 0.0 0.0 0.0 0.0 0.0 0.0 0.0 0.0 0.0 0.0 0.0 0.0 0.0 0.0 0.0 0.0 0.0
0.0 0.0 0.0 0.0 0.0 0.0 0.0 0.0 0.0 0.0 0.0 0.0 0.0 0.0 0.0 0.0 0.0 0.0 0.0 0.0 0.0 0.0 0.0 0.0 0.0 0.0 0.0 0.0 0.0 0.0 0.0 0.0 0.0 0.0 0.0 0.0 0.0 0.0
0.0 0.0 0.0 0.0 0.0 0.0 0.0 0.0 0.0 0.0 0.0 0.0 0.0 0.0 0.0 0.0 0.0 0.0 0.0 0.0 0.0 0.0 0.0 0.0 0.0 0.0 0.0 0.0 0.0 0.0 0.0 0.0 0.0 0.0 0.0 0.0 0.0 0.0
0.0 0.0 0.0 0.0 0.0 0.0 0.0 0.0 0.0 0.0 0.0 0.0 0.0 0.0 0.0 0.0 0.0 0.0 0.0 0.0 0.0 0.0 0.0 0.0 0.0 0.0 0.0 0.0 0.0 0.0 0.0 0.0 0.0 0.0 0.0 0.0 0.0 0.0
0.0 0.0 0.0 0.0 0.0 0.0 0.0 0.0 0.0 0.0 0.0 0.0 0.0 0.0 0.0 0.0 0.0 0.0 0.0 0.0 0.0 0.0 0.0 0.0 0.0 0.0 0.0 0.0 0.0 0.0 0.0 0.0 0.0 0.0 0.0 0.0 0.0 0.0
0.0 0.0 0.0 0.0 0.0 0.0 0.0 0.0 0.0 0.0 0.0 0.0 0.0 0.0 0.0 0.0 0.0 0.0 0.0 0.1 0.2 0.0 0.0 0.0 0.0 0.0 0.0 0.0 0.0 0.0 0.0 0.0 0.0 0.0 0.0 0.0 0.0 0.2
0.0 0.0 0.0 0.0 0.0 0.0 0.0 0.0 0.0 0.0 0.0 0.0 0.0 0.0 0.0 0.0 0.0 0.0 0.1 0.2 0.1 0.0 0.0 0.0 0.0 0.0 0.0 0.0 0.0 0.0 0.0 0.0 0.0 0.0 0.0 0.0 0.0 0.0
0.0 0.0 0.0 0.0 0.0 0.0 0.0 0.0 0.0 0.0 0.0 0.0 0.0 0.0 0.0 0.0 0.0 0.0 0.0 0.0 0.0 0.0 0.0 0.3 0.0 0.0 0.0 0.0 0.0 0.0 0.0 0.0 0.0 0.0 0.0 0.0 0.0 0.0
0.0 0.0 0.0 0.0 0.0 0.0 0.0 0.0 0.0 0.0 0.0 0.0 0.7 0.3 0.1 0.0 0.0 0.0 0.1 0.4 0.3 0.0 0.0 0.1 0.0 0.0 0.0 0.0 0.0 0.0 0.0 0.0 0.1 0.0 0.0 0.0 0.0 0.0
0.0 0.0 0.0 0.0 0.0 0.0 0.0 0.0 0.0 0.0 0.9 1.0 0.6 0.2 0.0 0.0 0.0 0.0 0.0 0.6 0.7 0.4 0.0 0.1 0.0 0.1 0.5 0.0 0.0 0.0 0.0 0.0 0.0 0.0 0.0 0.0 0.0 0.0
0.0 0.0 0.0 0.0 0.5 0.2 0.0 0.0 0.0 1.0 0.9 0.4 0.3 0.2 0.0 0.0 0.0 0.0 0.0 0.9 2.1 1.5 0.0 0.2 1.4 1.1 1.7 1.1 0.0 0.0 0.0 0.4 0.3 0.0 0.0 0.0 0.0 0.0
0.0 0.0 0.8 0.8 0.4 0.1 1.2 1.2 1.1 0.8 0.4 0.2 0.3 0.3 0.3 0.5 0.2 0.1 0.3 0.2 0.3 0.4 0.2 1.1 2.4 1.2 1.3 1.7 0.7 0.0 0.3 0.0 0.0 0.0 0.0 0.0 0.0 0.0
1.1 1.0 0.8 0.4 1.7 1.7 1.6 1.2 0.6 0.3 0.1 0.0 0.4 0.0 0.0 0.0 0.1 0.2 0.2 0.0 0.1 0.0 0.0 0.3 0.6 0.6 1.5 1.4 0.9 0.3 0.1 0.0 0.0 0.0 0.0 0.0 0.0 0.2
0.8 0.4 1.5 1.2 1.0 1.0 0.7 0.3 0.1 0.1 0.2 0.2 0.0 0.0 0.0 0.1 0.2 0.1 0.1 0.3 0.8 0.1 0.0 0.3 0.5 1.5 1.8 0.7 1.1 0.5 0.1 0.1 0.0 0.0 0.0 0.1 0.0 0.9
1.2 1.0 1.0 0.7 0.4 0.2 0.1 0.1 0.1 0.0 0.0 0.0 0.0 0.4 0.0 0.6 0.5 0.6 0.8 0.6 1.6 0.2 0.0 0.2 0.5 0.9 0.5 0.7 0.7 0.2 0.0 0.0 0.1 0.0 0.0 0.3 0.1 0.5
0.8 0.6 0.6 0.4 0.4 0.3 0.2 0.1 0.0 0.0 0.0 0.0 0.0 0.0 0.7 1.1 1.8 1.4 1.6 2.8 2.4 1.3 0.8 0.9 1.1 1.4 0.9 0.4 0.0 0.1 0.1 0.2 0.1 0.2 0.1 0.3 0.2 0.1
0.5 0.6 0.7 0.6 0.4 0.2 0.1 0.0 0.0 0.0 0.0 0.0 0.6 0.5 0.5 0.6 0.7 0.8 0.5 0.2 0.7 0.1 0.0 0.3 0.5 1.3 1.4 0.6 0.1 0.0 0.7 0.3 0.1 0.2 0.0 0.3 0.2 0.1
0.4 0.4 0.3 0.1 0.0 0.0 0.0 0.0 0.0 0.1 0.1 0.0 0.6 0.4 0.8 1.1 1.2 0.7 0.5 1.6 1.4 0.0 0.0 0.3 0.1 0.7 1.7 1.4 1.8 0.2 0.0 0.1 0.6 0.2 0.1 0.5 0.1 0.0
0.3 0.3 0.4 0.5 0.4 0.2 0.3 0.3 0.2 0.2 0.0 3.5 3.1 3.4 3.7 4.1 3.4 1.9 3.9 3.2 3.3 2.9 1.9 0.5 0.1 1.1 1.3 1.1 1.4 0.1 0.0 0.1 0.0 0.3 1.7 2.0 0.5 0.1
0.8 0.8 0.8 0.7 0.5 0.2 0.3 0.3 0.1 0.1 1.1 2.3 2.6 1.6 1.7 1.6 2.0 1.1 2.1 2.2 2.0 2.1 1.1 0.5 0.4 1.2 1.1 1.0 0.3 0.5 0.1 0.6 0.1 0.2 1.5 2.1 0.6 0.6
0.8 0.5 0.5 0.4 0.1 0.1 0.1 0.1 0.1 0.0 0.6 1.2 1.9 1.7 1.5 2.4 1.6 1.7 1.6 1.4 1.9 1.5 1.1 1.8 1.7 1.6 1.0 0.8 0.6 0.4 0.1 1.6 0.1 1.3 0.9 0.7 0.0 0.0

GFSNE_prec_kuchsnow24_078.txt.gz
Snowfall_Accumulation
0.0 0.0 0.0 0.0 0.0 0.0 0.0 0.0 0.0 0.0 0.0 0.0 0.0 0.0 0.0 0.0 0.0 0.0 0.0 0.0 0.0 0.0 0.0 0.0 0.0 0.0 0.0 0.0 0.0 0.0 0.0 0.0 0.0 0.0 0.0 0.0 0.0 0.0
0.0 0.0 0.0 0.0 0.0 0.0 0.0 0.0 0.0 0.0 0.0 0.0 0.0 0.0 0.0 0.0 0.0 0.0 0.0 0.0 0.0 0.0 0.0 0.0 0.0 0.0 0.0 0.0 0.0 0.0 0.0 0.0 0.0 0.0 0.0 0.0 0.0 0.0
0.0 0.0 0.0 0.0 0.0 0.0 0.0 0.0 0.0 0.0 0.0 0.0 0.0 0.0 0.0 0.0 0.0 0.0 0.0 0.0 0.0 0.0 0.0 0.0 0.0 0.0 0.0 0.0 0.0 0.0 0.0 0.0 0.0 0.0 0.0 0.0 0.0 0.0
0.0 0.0 0.0 0.0 0.0 0.0 0.0 0.0 0.0 0.0 0.0 0.0 0.0 0.0 0.0 0.0 0.0 0.0 0.0 0.0 0.0 0.0 0.0 0.0 0.0 0.0 0.0 0.0 0.0 0.0 0.0 0.0 0.0 0.0 0.0 0.0 0.0 0.0
0.0 0.0 0.0 0.0 0.0 0.0 0.0 0.0 0.0 0.0 0.0 0.0 0.0 0.0 0.0 0.0 0.0 0.0 0.0 0.0 0.0 0.0 0.0 0.0 0.0 0.0 0.0 0.0 0.0 0.0 0.0 0.0 0.0 0.0 0.0 0.0 0.0 0.0
0.0 0.0 0.0 0.0 0.0 0.0 0.0 0.0 0.0 0.0 0.0 0.0 0.0 0.0 0.0 0.0 0.0 0.0 0.0 0.0 0.0 0.0 0.0 0.0 0.0 0.0 0.0 0.0 0.0 0.0 0.0 0.0 0.0 0.0 0.0 0.0 0.0 0.0
0.0 0.0 0.0 0.0 0.0 0.0 0.0 0.0 0.0 0.0 0.0 0.0 0.0 0.0 0.0 0.0 0.0 0.0 0.0 0.0 0.0 0.0 0.0 0.0 0.0 0.0 0.0 0.0 0.0 0.0 0.0 0.0 0.0 0.0 0.0 0.0 0.0 0.0
0.0 0.0 0.0 0.0 0.0 0.0 0.0 0.0 0.0 0.0 0.0 0.0 0.0 0.0 0.0 0.0 0.0 0.0 0.0 0.1 0.2 0.0 0.0 0.0 0.0 0.0 0.0 0.0 0.0 0.0 0.0 0.0 0.0 0.0 0.0 0.0 0.0 0.2
0.0 0.0 0.0 0.0 0.0 0.0 0.0 0.0 0.0 0.0 0.0 0.0 0.0 0.0 0.0 0.0 0.0 0.0 0.1 0.9 0.6 0.0 0.0 0.0 0.0 0.0 0.0 0.0 0.0 0.0 0.0 0.0 0.0 0.0 0.0 0.0 0.0 0.0
0.0 0.0 0.0 0.0 0.0 0.0 0.0 0.0 0.0 0.0 0.0 0.0 0.0 0.0 0.0 0.0 0.0 0.0 0.0 0.7 0.0 0.0 0.0 0.3 0.0 0.0 0.0 0.0 0.0 0.0 0.0 0.0 0.0 0.0 0.0 0.0 0.0 0.0
0.0 0.0 0.0 0.0 0.0 0.0 0.0 0.0 0.0 0.0 0.0 0.0 0.7 0.3 0.1 0.0 1.2 0.6 0.7 0.7 0.5 0.1 0.0 0.1 0.0 0.0 0.0 0.0 0.0 0.0 0.0 0.0 0.1 0.0 0.0 0.0 0.0 0.0
0.0 0.0 0.0 0.0 0.0 0.0 0.0 0.0 0.0 0.0 0.9 1.0 0.6 0.2 1.2 0.9 0.8 0.6 0.3 0.8 0.8 0.5 0.0 0.1 0.0 0.1 0.5 0.0 0.0 0.0 0.0 0.0 0.0 0.0 0.0 0.0 0.0 0.0
0.0 0.0 0.0 0.0 0.5 0.2 0.0 0.0 0.0 1.0 0.9 0.4 0.2 1.0 0.8 0.7 0.5 0.4 0.3 1.2 2.3 1.5 0.0 0.2 1.4 1.1 1.7 1.1 0.0 0.0 0.0 0.4 0.3 0.0 0.0 0.0 0.0 0.0
0.0 0.0 0.8 0.8 0.4 0.1 1.2 1.2 1.1 0.8 1.2 1.2 1.2 1.0 0.6 0.4 0.2 0.1 0.4 0.2 0.3 0.4 0.2 1.1 2.4 1.2 1.3 1.7 0.7 0.0 0.3 0.0 0.0 0.0 0.0 0.0 0.0 0.0
1.1 1.0 0.8 0.4 1.7 1.7 1.6 1.2 1.3 1.1 1.0 0.7 0.6 0.3 0.0 0.0 0.0 0.1 0.1 0.0 0.1 0.0 0.0 0.3 0.6 0.6 1.5 1.4 0.9 0.3 0.1 0.0 0.0 0.0 0.0 0.0 0.0 0.1
0.8 0.4 1.5 1.2 1.0 1.4 1.3 0.7 0.4 0.3 0.3 0.5 0.5 0.3 0.1 0.0 0.0 0.0 0.0 0.2 0.6 0.0 0.0 0.3 0.5 1.5 1.8 0.7 1.1 0.5 0.1 0.1 0.0 0.0 0.0 0.1 0.0 0.0
1.2 1.9 2.0 1.8 1.5 1.3 1.1 0.9 0.9 0.7 0.5 0.2 0.1 0.1 0.0 0.0 0.0 0.4 0.6 0.6 1.5 0.2 0.0 0.2 0.5 0.9 0.5 0.7 0.7 0.2 0.0 0.0 0.0 0.0 0.0 0.4 0.1 0.0
2.2 2.1 1.9 1.7 1.7 1.6 1.3 1.0 0.5 0.3 0.1 0.0 0.0 0.0 0.3 0.4 1.3 1.2 1.4 2.6 2.3 1.3 0.8 0.9 1.1 1.4 0.9 0.4 0.0 0.1 0.1 0.2 0.1 0.2 0.1 0.3 0.2 0.1
2.4 2.6 2.5 2.2 1.7 1.1 0.7 0.5 0.3 0.1 0.0 0.0 0.0 0.0 0.4 0.4 0.5 0.6 0.3 0.1 0.5 0.1 0.0 0.3 0.5 1.3 1.4 0.6 0.1 0.0 0.7 0.3 0.1 0.2 0.0 0.3 0.2 0.1
1.6 1.5 1.3 0.8 0.6 0.4 0.2 0.1 0.1 0.1 0.1 0.0 0.1 0.1 0.8 0.9 1.0 0.4 0.3 1.4 1.2 0.0 0.0 0.3 0.1 0.8 2.1 1.7 1.8 0.2 0.0 0.1 0.6 0.2 0.1 1.1 0.1 0.0
1.3 1.2 1.1 0.9 0.6 0.3 0.3 0.3 0.2 0.2 0.0 0.2 0.1 1.6 3.3 3.9 3.2 1.7 3.6 3.0 2.9 2.6 1.8 0.5 0.1 1.1 1.3 1.1 1.4 0.1 0.0 0.1 0.0 0.3 2.0 2.9 0.5 2.5
1.3 1.1 1.0 0.8 0.6 0.2 0.3 0.3 0.1 0.1 0.1 0.0 0.4 0.1 0.8 1.3 2.0 1.1 1.7 1.8 1.8 1.9 1.0 0.5 0.4 1.2 1.2 1.1 0.4 0.5 0.1 0.6 0.1 0.2 1.5 2.8 3.2 4.0
1.1 0.6 0.5 0.4 0.1 0.1 0.1 0.1 0.0 0.0 0.0 0.1 0.3 0.1 0.1 1.2 1.2 1.4 1.6 1.1 1.6 1.4 1.1 1.8 1.7 1.6 1.0 0.8 0.6 0.4 0.1 1.6 0.1 1.3 0.9 0.7 2.1 1.0

GFSNE_prec_kuchsnow24_081.txt.gz
Snowfall_Accumulation
0.0 0.0 0.0 0.0 0.0 0.0 0.0 0.0 0.0 0.0 0.0 0.0 0.0 0.0 0.0 0.0 0.0 0.0 0.0 0.0 0.0 0.0 0.0 0.0 0.0 0.0 0.0 0.0 0.0 0.0 0.0 0.0 0.0 0.0 0.0 0.0 0.0 0.0
0.0 0.0 0.0 0.0 0.0 0.0 0.0 0.0 0.0 0.0 0.0 0.0 0.0 0.0 0.0 0.0 0.0 0.0 0.0 0.0 0.0 0.0 0.0 0.0 0.0 0.0 0.0 0.0 0.0 0.0 0.0 0.0 0.0 0.0 0.0 0.0 0.0 0.0
0.0 0.0 0.0 0.0 0.0 0.0 0.0 0.0 0.0 0.0 0.0 0.0 0.0 0.0 0.0 0.0 0.0 0.0 0.0 0.0 0.0 0.0 0.0 0.0 0.0 0.0 0.0 0.0 0.0 0.0 0.0 0.0 0.0 0.0 0.0 0.0 0.0 0.0
0.0 0.0 0.0 0.0 0.0 0.0 0.0 0.0 0.0 0.0 0.0 0.0 0.0 0.0 0.0 0.0 0.0 0.0 0.0 0.0 0.0 0.0 0.0 0.0 0.0 0.0 0.0 0.0 0.0 0.0 0.0 0.0 0.0 0.0 0.0 0.0 0.0 0.0
0.0 0.0 0.0 0.0 0.0 0.0 0.0 0.0 0.0 0.0 0.0 0.0 0.0 0.0 0.0 0.0 0.0 0.0 0.0 0.0 0.0 0.0 0.0 0.0 0.0 0.0 0.0 0.0 0.0 0.0 0.0 0.0 0.0 0.0 0.0 0.0 0.0 0.0
0.0 0.0 0.0 0.0 0.0 0.0 0.0 0.0 0.0 0.0 0.0 0.0 0.0 0.0 0.0 0.0 0.0 0.0 0.0 0.0 0.0 0.0 0.0 0.0 0.0 0.0 0.0 0.0 0.0 0.0 0.0 0.0 0.0 0.0 0.0 0.0 0.0 0.0
0.0 0.0 0.0 0.0 0.0 0.0 0.0 0.0 0.0 0.0 0.0 0.0 0.0 0.0 0.0 0.0 0.0 0.0 0.0 0.0 0.0 0.0 0.0 0.0 0.0 0.0 0.0 0.0 0.0 0.0 0.0 0.0 0.0 0.0 0.0 0.0 0.0 0.0
0.0 0.0 0.0 0.0 0.0 0.0 0.0 0.0 0.0 0.0 0.0 0.0 0.0 0.0 0.0 0.0 0.0 0.0 0.0 0.0 0.1 0.0 0.0 0.0 0.0 0.0 0.0 0.0 0.0 0.0 0.0 0.0 0.0 0.0 0.0 0.0 0.0 0.2
0.0 0.0 0.0 0.0 0.0 0.0 0.0 0.0 0.0 0.0 0.0 0.0 0.0 0.0 0.0 0.0 0.0 0.0 0.1 0.8 0.6 0.0 0.0 0.0 0.0 0.0 0.0 0.0 0.0 0.0 0.0 0.0 0.0 0.0 0.0 0.0 0.0 0.0
0.0 0.0 0.0 0.0 0.0 0.0 0.0 0.0 0.0 0.0 0.0 0.0 0.0 0.0 0.0 0.0 0.0 0.0 0.0 0.7 0.0 0.6 0.4 1.0 0.2 0.1 0.0 0.0 0.0 0.0 0.0 0.0 0.0 0.0 0.0 0.0 0.0 0.0
0.0 0.0 0.0 0.0 0.0 0.0 0.0 0.0 0.0 0.0 0.0 0.0 0.7 0.3 0.1 0.0 1.2 0.6 0.6 1.5 1.6 0.8 0.4 0.4 0.2 0.1 0.0 0.0 0.0 0.0 0.0 0.0 0.1 0.0 0.0 0.0 0.0 0.0
0.0 0.0 0.0 0.0 0.0 0.0 0.0 0.0 0.0 0.0 0.9 1.0 0.6 0.2 1.2 0.9 0.8 0.9 0.8 1.4 1.5 1.2 0.5 0.4 0.2 0.2 0.5 0.0 0.0 0.0 0.0 0.0 0.0 0.0 0.0 0.0 0.0 0.0
0.0 0.0 0.0 0.0 0.5 0.2 0.0 0.0 0.0 1.0 0.9 0.4 0.2 1.0 0.8 1.0 0.9 0.4 0.8 1.1 2.3 1.5 0.1 0.2 1.4 1.1 1.7 1.1 0.0 0.0 0.0 0.4 0.3 0.0 0.0 0.0 0.0 0.0
0.0 0.0 0.8 0.8 0.4 0.1 1.2 1.2 1.1 0.8 1.2 1.4 1.2 1.6 1.2 1.0 0.2 0.1 0.1 0.1 0.3 0.4 0.2 1.1 2.4 1.2 1.3 1.7 0.7 0.0 0.3 0.0 0.0 0.0 0.0 0.0 0.0 0.0
1.1 1.0 0.8 0.4 1.7 1.7 1.6 1.2 1.3 2.1 2.0 1.8 1.5 1.2 0.6 0.3 0.2 0.1 0.1 0.0 0.0 0.0 0.0 0.3 0.6 0.6 1.5 1.4 0.9 0.3 0.1 0.0 0.0 0.0 0.0 0.0 0.0 0.1
0.8 0.4 1.5 1.2 1.0 4.3 4.2 3.2 2.4 1.9 1.7 1.5 1.4 1.2 0.5 0.2 0.1 0.0 0.0 0.0 0.4 0.0 0.0 0.3 0.5 1.5 1.8 0.7 1.1 0.5 0.1 0.1 0.0 0.0 0.0 0.1 0.0 0.0
1.2 6.9 7.4 6.4 5.6 4.7 4.1 3.4 2.9 2.5 2.1 1.6 1.1 0.8 0.4 0.3 0.1 0.0 0.0 0.0 0.9 0.2 0.0 0.2 0.5 0.9 0.5 0.7 0.7 0.2 0.0 0.0 0.0 0.1 0.0 0.4 0.1 0.0
7.6 7.9 7.5 6.3 5.8 5.4 4.7 3.9 2.8 2.0 1.4 0.9 0.7 0.5 0.3 0.1 0.0 0.0 0.0 1.5 1.9 1.3 0.8 0.9 1.1 1.4 0.9 0.4 0.0 0.1 0.1 0.2 0.1 0.2 0.1 0.3 0.2 0.1
6.1 6.8 6.3 5.2 4.2 3.3 2.5 1.8 1.4 0.8 0.5 0.2 0.0 0.0 0.0 0.0 0.0 0.0 0.0 0.0 0.4 0.1 0.0 0.3 0.5 1.3 1.5 0.6 0.1 0.0 0.7 0.3 0.1 0.2 0.0 0.3 0.2 0.1
3.5 3.2 2.9 2.1 1.6 1.3 0.9 0.6 0.4 0.2 0.1 0.0 0.1 0.1 0.1 0.1 0.0 0.0 0.0 1.4 1.2 0.0 0.0 0.3 0.1 0.8 2.1 1.7 1.8 0.2 0.0 0.1 0.6 0.2 0.1 1.1 0.1 0.0
2.4 2.2 2.0 1.7 1.3 0.7 0.5 0.4 0.2 0.2 0.0 0.2 0.1 0.1 0.1 0.2 0.1 0.1 3.0 2.8 2.9 2.4 1.7 0.5 0.1 1.1 1.3 1.1 1.4 0.1 0.0 0.1 0.0 0.3 2.0 2.9 0.5 2.5
2.0 1.7 1.5 1.1 0.6 0.2 0.3 0.3 0.1 0.1 0.1 0.0 0.0 0.1 0.1 0.1 0.9 0.1 1.1 1.4 1.8 1.7 1.0 0.5 0.4 1.2 1.2 1.1 0.4 0.5 0.1 0.6 0.1 0.2 1.5 2.8 3.4 4.3
1.4 0.6 0.5 0.4 0.1 0.1 0.0 0.1 0.0 0.0 0.0 0.1 0.0 0.1 0.1 0.2 0.0 0.2 0.8 0.7 1.5 1.2 0.9 1.6 1.7 1.6 1.0 0.8 0.6 0.4 0.1 1.6 0.1 1.3 0.9 0.7 2.1 1.0

GFSNE_prec_kuchsnow24_084.txt.gz
Snowfall_Accumulation
0.0 0.0 0.0 0.0 0.0 0.0 0.0 0.0 0.0 0.0 0.0 0.0 0.0 0.0 0.0 0.0 0.0 0.0 0.0 0.0 0.0 0.0 0.0 0.0 0.0 0.0 0.0 0.0 0.0 0.0 0.0 0.0 0.0 0.0 0.0 0.0 0.0 0.0
0.0 0.0 0.0 0.0 0.0 0.0 0.0 0.0 0.0 0.0 0.0 0.0 0.0 0.0 0.0 0.0 0.0 0.0 0.0 0.0 0.0 0.0 0.0 0.0 0.0 0.0 0.0 0.0 0.0 0.0 0.0 0.0 0.0 0.0 0.0 0.0 0.0 0.0
0.0 0.0 0.0 0.0 0.0 0.0 0.0 0.0 0.0 0.0 0.0 0.0 0.0 0.0 0.0 0.0 0.0 0.0 0.0 0.0 0.0 0.0 0.0 0.0 0.0 0.0 0.0 0.0 0.0 0.0 0.0 0.0 0.0 0.0 0.0 0.0 0.0 0.0
0.0 0.0 0.0 0.0 0.0 0.0 0.0 0.0 0.0 0.0 0.0 0.0 0.0 0.0 0.0 0.0 0.0 0.0 0.0 0.0 0.0 0.0 0.0 0.0 0.0 0.0 0.0 0.0 0.0 0.0 0.0 0.0 0.0 0.0 0.0 0.0 0.0 0.0
0.0 0.0 0.0 0.0 0.0 0.0 0.0 0.0 0.0 0.0 0.0 0.0 0.0 0.0 0.0 0.0 0.0 0.0 0.0 0.0 0.0 0.0 0.0 0.0 0.0 0.0 0.0 0.0 0.0 0.0 0.0 0.0 0.0 0.0 0.0 0.0 0.0 0.0
0.0 0.0 0.0 0.0 0.0 0.0 0.0 0.0 0.0 0.0 0.0 0.0 0.0 0.0 0.0 0.0 0.0 0.0 0.0 0.0 0.0 0.0 0.0 0.0 0.0 0.0 0.0 0.0 0.0 0.0 0.0 0.0 0.0 0.0 0.0 0.0 0.0 0.0
0.0 0.0 0.0 0.0 0.0 0.0 0.0 0.0 0.0 0.0 0.0 0.0 0.0 0.0 0.0 0.0 0.0 0.0 0.0 0.0 0.0 0.0 0.0 0.0 0.0 0.0 0.0 0.0 0.0 0.0 0.0 0.0 0.0 0.0 0.0 0.0 0.0 0.0
0.0 0.0 0.0 0.0 0.0 0.0 0.0 0.0 0.0 0.0 0.0 0.0 0.0 0.0 0.0 0.0 0.0 0.0 0.0 0.0 0.0 0.0 0.0 0.0 0.0 0.0 0.0 0.0 0.0 0.0 0.0 0.0 0.0 0.0 0.0 0.0 0.0 0.2
0.0 0.0 0.0 0.0 0.0 0.0 0.0 0.0 0.0 0.0 0.0 0.0 0.0 0.0 0.0 0.0 0.0 0.0 0.0 0.7 0.6 0.0 0.0 0.0 0.0 0.0 0.0 0.0 0.0 0.0 0.0 0.0 0.0 0.0 0.0 0.0 0.0 0.0
0.0 0.0 0.0 0.0 0.0 0.0 0.0 0.0 0.0 0.0 0.0 0.0 0.0 0.0 0.0 0.0 0.0 0.0 0.0 0.7 0.0 0.6 0.4 0.9 0.8 0.7 0.4 0.0 0.0 0.0 0.0 0.0 0.0 0.0 0.0 0.0 0.0 0.0
0.0 0.0 0.0 0.0 0.0 0.0 0.0 0.0 0.0 0.0 0.0 0.0 0.7 0.3 0.1 0.0 1.2 0.6 0.6 1.3 1.4 0.8 0.4 0.8 0.7 0.7 0.4 0.3 0.0 0.0 0.0 0.0 0.1 0.0 0.0 0.0 0.0 0.0
0.0 0.0 0.0 0.0 0.0 0.0 0.0 0.0 0.0 0.0 0.9 1.0 0.6 0.2 1.2 0.9 0.8 0.9 0.8 1.1 1.1 1.9 0.9 0.5 0.3 0.3 0.3 0.0 0.0 0.0 0.0 0.0 0.1 0.0 0.0 0.0 0.0 0.0
0.0 0.0 0.0 0.0 0.5 0.2 0.0 0.0 0.0 1.0 0.9 0.4 0.2 1.0 0.8 1.0 0.9 0.4 0.8 1.1 1.4 0.6 0.1 0.3 0.6 0.8 1.6 1.1 0.0 0.0 0.0 0.4 0.3 0.0 0.0 0.0 0.0 0.0
0.0 0.0 0.8 0.8 0.4 0.1 1.2 1.2 1.1 0.8 1.2 1.4 1.2 1.6 2.8 2.7 2.0 1.4 0.6 0.3 0.1 0.1 0.0 0.4 1.6 1.1 1.3 1.7 0.7 0.0 0.3 0.0 0.0 0.0 0.0 0.0 0.0 0.0
1.1 1.0 0.8 0.4 1.7 1.7 1.6 1.2 1.3 2.1 2.0 5.1 5.8 6.4 5.7 4.0 2.5 1.5 0.8 0.4 0.3 0.2 0.1 0.0 0.4 0.6 1.5 1.4 0.9 0.3 0.1 0.0 0.0 0.0 0.0 0.0 0.0 0.1
0.8 0.4 1.5 1.2 1.0 4.3 4.2 3.2 2.4 6.9 7.3 7.2 6.9 5.8 4.0 2.9 2.3 1.6 1.2 0.6 0.5 0.3 0.1 0.0 0.4 1.5 1.8 0.7 1.1 0.5 0.1 0.1 0.0 0.0 0.0 0.1 0.0 0.0
1.2 6.9 11.4 6.4 9.9 10.2 11.0 10.7 9.6 8.3 7.2 6.0 4.8 3.8 2.7 1.9 1.4 0.7 0.3 0.2 0.2 0.0 0.0 0.0 0.5 0.9 0.5 0.7 0.7 0.2 0.0 0.0 0.0 0.1 0.0 0.4 0.1 0.0
12.6 13.8 14.1 13.4 12.7 12.2 10.8 9.3 7.4 5.9 4.6 3.5 2.7 1.8 1.2 0.6 0.2 0.0 0.0 0.0 0.3 0.0 0.0 0.7 1.0 1.2 0.8 0.4 0.0 0.1 0.1 0.2 0.1 0.2 0.1 0.3 0.2 0.1
9.8 10.8 10.6 9.8 8.8 7.3 6.0 4.8 4.1 3.1 2.1 1.4 0.7 0.4 0.1 0.0 0.0 0.0 0.0 0.0 0.0 0.0 0.0 0.3 0.3 1.2 1.5 0.6 0.1 0.0 0.7 0.3 0.1 0.2 0.0 0.3 0.2 0.1
6.5 6.2 5.6 4.6 3.6 2.9 2.2 1.7 1.3 0.8 0.5 0.0 0.1 0.1 0.1 0.1 0.0 0.0 0.0 0.1 0.5 0.0 0.0 0.3 0.0 0.8 2.1 1.7 1.9 0.2 0.0 0.1 0.6 0.2 0.1 1.1 0.1 0.0
3.9 3.5 3.1 2.5 1.9 1.1 0.8 0.4 0.2 0.2 0.0 0.2 0.1 0.1 0.1 0.2 0.1 0.1 0.0 0.0 1.2 2.2 1.6 0.5 0.1 1.1 1.3 1.1 1.4 0.1 0.0 0.1 0.0 0.3 2.0 2.9 0.5 2.5
2.9 2.4 2.1 1.5 0.8 0.3 0.3 0.3 0.1 0.1 0.1 0.0 0.0 0.1 0.1 0.1 0.2 0.1 0.1 0.2 0.8 1.3 1.0 0.5 0.4 1.2 1.2 1.1 0.4 0.5 0.1 0.6 0.1 0.2 1.5 2.8 3.9 4.8
1.4 0.6 0.5 0.4 0.1 0.1 0.0 0.1 0.0 0.0 0.0 0.0 0.0 0.1 0.1 0.2 0.0 0.2 0.2 0.1 0.9 0.7 0.7 1.3 1.4 1.5 1.0 0.8 0.6 0.4 0.1 1.6 0.1 1.3 0.9 0.7 2.1 1.0

GFSNE_prec_kuchsnow24_087.txt.gz
Snowfall_Accumulation
0.0 0.0 0.0 0.0 0.0 0.0 0.0 0.0 0.0 0.0 0.0 0.0 0.0 0.0 0.0 0.0 0.0 0.0 0.0 0.0 0.0 0.0 0.0 0.0 0.0 0.0 0.0 0.0 0.0 0.0 0.0 0.0 0.0 0.0 0.0 0.0 0.0 0.0
0.0 0.0 0.0 0.0 0.0 0.0 0.0 0.0 0.0 0.0 0.0 0.0 0.0 0.0 0.0 0.0 0.0 0.0 0.0 0.0 0.0 0.0 0.0 0.0 0.0 0.0 0.0 0.0 0.0 0.0 0.0 0.0 0.0 0.0 0.0 0.0 0.0 0.0
0.0 0.0 0.0 0.0 0.0 0.0 0.0 0.0 0.0 0.0 0.0 0.0 0.0 0.0 0.0 0.0 0.0 0.0 0.0 0.0 0.0 0.0 0.0 0.0 0.0 0.0 0.0 0.0 0.0 0.0 0.0 0.0 0.0 0.0 0.0 0.0 0.0 0.0
0.0 0.0 0.0 0.0 0.0 0.0 0.0 0.0 0.0 0.0 0.0 0.0 0.0 0.0 0.0 0.0 0.0 0.0 0.0 0.0 0.0 0.0 0.0 0.0 0.0 0.0 0.0 0.0 0.0 0.0 0.0 0.0 0.0 0.0 0.0 0.0 0.0 0.0
0.0 0.0 0.0 0.0 0.0 0.0 0.0 0.0 0.0 0.0 0.0 0.0 0.0 0.0 0.0 0.0 0.0 0.0 0.0 0.0 0.0 0.0 0.0 0.0 0.0 0.0 0.0 0.0 0.0 0.0 0.0 0.0 0.0 0.0 0.0 0.0 0.0 0.0
0.0 0.0 0.0 0.0 0.0 0.0 0.0 0.0 0.0 0.0 0.0 0.0 0.0 0.0 0.0 0.0 0.0 0.0 0.0 0.0 0.0 0.0 0.0 0.0 0.0 0.0 0.0 0.0 0.0 0.0 0.0 0.0 0.0 0.0 0.0 0.0 0.0 0.0
0.0 0.0 0.0 0.0 0.0 0.0 0.0 0.0 0.0 0.0 0.0 0.0 0.0 0.0 0.0 0.0 0.0 0.0 0.0 0.0 0.0 0.0 0.0 0.0 0.0 0.0 0.0 0.0 0.0 0.0 0.0 0.0 0.0 0.0 0.0 0.0 0.0 0.0
0.0 0.0 0.0 0.0 0.0 0.0 0.0 0.0 0.0 0.0 0.0 0.0 0.0 0.0 0.0 0.0 0.0 0.0 0.0 0.0 0.0 0.0 0.0 0.0 0.0 0.0 0.0 0.0 0.0 0.0 0.0 0.0 0.0 0.0 0.0 0.0 0.0 0.2
0.0 0.0 0.0 0.0 0.0 0.0 0.0 0.0 0.0 0.0 0.0 0.0 0.0 0.0 0.0 0.0 0.0 0.0 0.0 0.7 0.6 0.0 0.0 0.0 0.0 0.0 0.0 0.0 0.0 0.0 0.0 0.0 0.0 0.0 0.0 0.0 0.0 0.0
0.0 0.0 0.0 0.0 0.0 0.0 0.0 0.0 0.0 0.0 0.0 0.0 0.0 0.0 0.0 0.0 0.0 0.0 0.0 0.7 0.0 0.6 0.4 0.6 0.8 0.7 0.4 0.0 0.0 0.0 0.0 0.0 0.0 0.0 0.0 0.0 0.0 0.0
0.0 0.0 0.0 0.0 0.0 0.0 0.0 0.0 0.0 0.0 0.0 0.0 0.7 0.3 0.1 0.0 1.2 0.6 0.6 1.2 1.3 0.8 0.4 0.8 0.7 0.7 0.4 1.2 0.7 0.3 0.1 0.0 0.2 0.0 0.0 0.0 0.0 0.0
0.0 0.0 0.0 0.0 0.0 0.0 0.0 0.0 0.0 0.0 0.9 1.0 0.6 0.2 1.2 0.9 0.8 0.9 0.8 0.9 0.9 1.7 0.9 0.5 0.3 1.1 0.9 0.8 0.5 0.1 0.0 0.0 0.1 0.0 0.0 0.0 0.0 0.0
0.0 0.0 0.0 0.0 0.5 0.2 0.0 0.0 0.0 1.0 0.9 0.4 0.2 1.0 0.8 1.0 0.9 0.4 0.8 1.1 1.0 0.6 1.9 2.0 1.7 1.3 1.4 0.8 0.2 0.1 0.0 0.4 0.3 0.0 0.0 0.0 0.0 0.0
0.0 0.0 0.8 0.8 0.4 0.1 1.2 1.2 1.1 0.8 1.2 1.4 1.2 1.6 2.8 2.7 2.0 3.4 2.9 2.8 3.1 3.0 2.4 1.7 2.0 1.3 1.1 1.6 1.0 0.1 0.3 0.0 0.0 0.0 0.0 0.0 0.0 0.0
1.1 1.0 0.8 0.4 1.7 1.7 1.6 1.2 1.3 2.1 2.0 5.1 5.8 6.4 8.3 7.3 6.5 5.6 4.7 4.2 3.6 2.9 2.3 1.8 1.5 1.1 1.4 1.6 1.1 0.3 0.1 0.0 0.0 0.0 0.0 0.0 0.0 0.1
0.8 0.4 1.5 1.2 1.0 4.3 4.2 3.2 2.4 9.7 11.2 12.1 12.1 10.9 8.6 7.2 6.4 5.6 5.0 4.1 3.4 2.4 1.3 0.5 0.3 1.0 1.4 0.7 1.1 0.5 0.1 0.1 0.0 0.0 0.0 0.1 0.0 0.0
3.6 9.7 15.1 10.5 13.6 13.7 15.9 15.5 15.5 15.6 15.4 14.0 12.3 10.6 9.1 7.5 6.0 4.2 3.1 2.3 1.7 1.2 0.4 0.1 0.0 0.3 0.3 0.7 0.7 0.2 0.0 0.0 0.0 0.1 0.0 0.4 0.1 0.0
14.2 16.3 17.2 16.9 16.1 15.6 14.5 13.3 11.4 9.8 8.4 6.7 5.6 4.4 3.5 2.6 1.7 1.0 0.6 0.4 0.3 0.2 0.1 0.0 0.0 0.6 0.5 0.3 0.0 0.1 0.1 0.2 0.1 0.2 0.1 0.3 0.2 0.1
11.2 10.8 12.8 12.2 11.2 9.5 8.2 7.0 6.2 4.9 3.6 2.7 1.9 1.4 0.1 0.0 0.2 0.1 0.1 0.0 0.0 0.0 0.0 0.0 0.0 0.8 1.2 0.5 0.1 0.0 0.7 0.3 0.1 0.2 0.0 0.3 0.2 0.1
6.5 6.2 6.7 5.7 4.8 4.1 3.5 3.0 2.5 1.8 1.1 0.4 0.2 0.2 0.1 0.1 0.0 0.0 0.0 0.0 0.0 0.0 0.0 0.0 0.0 0.8 2.1 1.7 1.9 0.2 0.0 0.1 0.6 0.2 0.1 1.1 0.1 0.0
4.7 4.5 4.1 3.8 3.2 2.4 1.9 1.1 0.6 0.3 0.0 0.2 0.1 0.1 0.1 0.2 0.1 0.1 0.0 0.0 0.0 0.0 0.0 0.0 0.0 1.1 1.2 1.0 1.4 0.1 0.0 0.1 0.0 0.3 2.0 2.9 0.5 2.5
3.7 3.2 2.9 2.2 0.8 0.3 0.3 0.3 0.2 0.1 0.1 0.0 0.0 0.1 0.1 0.1 0.2 0.1 0.1 0.2 0.0 0.0 0.0 0.0 0.0 0.9 1.0 1.1 0.4 0.5 0.1 0.6 0.1 0.2 1.5 2.8 4.1 5.3
1.3 0.6 0.5 0.4 0.1 0.1 0.0 0.1 0.0 0.0 0.0 0.0 0.0 0.1 0.1 0.2 0.0 0.2 0.2 0.1 0.2 0.0 0.0 0.8 0.9 1.2 1.0 0.8 0.6 0.4 0.1 1.6 0.1 1.3 0.9 0.7 2.1 1.0

GFSNE_prec_kuchsnow24_093.txt.gz
Snowfall_Accumulation
0.0 0.0 0.0 0.0 0.0 0.0 0.0 0.0 0.0 0.0 0.0 0.0 0.0 0.0 0.0 0.0 0.0 0.0 0.0 0.0 0.0 0.0 0.0 0.0 0.0 0.0 0.0 0.0 0.0 0.0 0.0 0.0 0.0 0.0 0.0 0.0 0.0 0.0
0.0 0.0 0.0 0.0 0.0 0.0 0.0 0.0 0.0 0.0 0.0 0.0 0.0 0.0 0.0 0.0 0.0 0.0 0.0 0.0 0.0 0.0 0.0 0.0 0.0 0.0 0.0 0.0 0.0 0.0 0.0 0.0 0.0 0.0 0.0 0.0 0.0 0.0
0.0 0.0 0.0 0.0 0.0 0.0 0.0 0.0 0.0 0.0 0.0 0.0 0.0 0.0 0.0 0.0 0.0 0.0 0.0 0.0 0.0 0.0 0.0 0.0 0.0 0.0 0.0 0.0 0.0 0.0 0.0 0.0 0.0 0.0 0.0 0.0 0.0 0.0
0.0 0.0 0.0 0.0 0.0 0.0 0.0 0.0 0.0 0.0 0.0 0.0 0.0 0.0 0.0 0.0 0.0 0.0 0.0 0.0 0.0 0.0 0.0 0.0 0.0 0.0 0.0 0.0 0.0 0.0 0.0 0.0 0.0 0.0 0.0 0.0 0.0 0.0
0.0 0.0 0.0 0.0 0.0 0.0 0.0 0.0 0.0 0.0 0.0 0.0 0.0 0.0 0.0 0.0 0.0 0.0 0.0 0.0 0.0 0.0 0.0 0.0 0.0 0.0 0.0 0.0 0.0 0.0 0.0 0.0 0.0 0.0 0.0 0.0 0.0 0.0
0.0 0.0 0.0 0.0 0.0 0.0 0.0 0.0 0.0 0.0 0.0 0.0 0.0 0.0 0.0 0.0 0.0 0.0 0.0 0.0 0.0 0.0 0.0 0.0 0.0 0.0 0.0 0.0 0.0 0.0 0.0 0.0 0.0 0.0 0.0 0.0 0.0 0.0
0.0 0.0 0.0 0.0 0.0 0.0 0.0 0.0 0.0 0.0 0.0 0.0 0.0 0.0 0.0 0.0 0.0 0.0 0.0 0.0 0.0 0.0 0.0 0.0 0.0 0.0 0.0 0.0 0.0 0.0 0.0 0.0 0.0 0.0 0.0 0.0 0.0 0.0
0.0 0.0 0.0 0.0 0.0 0.0 0.0 0.0 0.0 0.0 0.0 0.0 0.0 0.0 0.0 0.0 0.0 0.0 0.0 0.0 0.0 0.0 0.0 0.0 0.0 0.0 0.0 0.0 0.0 0.0 0.0 0.0 0.0 0.0 0.0 0.0 0.0 0.0
0.0 0.0 0.0 0.0 0.0 0.0 0.0 0.0 0.0 0.0 0.0 0.0 0.0 0.0 0.0 0.0 0.0 0.0 0.0 0.7 0.6 0.0 0.0 0.0 0.0 0.0 0.0 0.0 0.0 0.0 0.0 0.0 0.0 0.0 0.0 0.0 0.0 0.0
0.0 0.0 0.0 0.0 0.0 0.0 0.0 0.0 0.0 0.0 0.0 0.0 0.0 0.0 0.0 0.0 0.0 0.0 0.0 0.7 0.0 0.6 0.4 0.6 0.8 0.7 0.4 0.0 0.0 0.0 0.0 0.0 0.0 0.0 0.0 0.0 0.1 0.0
0.0 0.0 0.0 0.0 0.0 0.0 0.0 0.0 0.0 0.0 0.0 0.0 0.7 0.3 0.1 0.0 1.2 0.6 0.6 1.2 1.3 0.8 0.4 0.8 0.7 0.7 0.4 1.2 0.7 0.3 0.1 0.6 0.6 0.4 0.3 1.5 1.6 1.7
0.0 0.0 0.0 0.0 0.0 0.0 0.0 0.0 0.0 0.0 0.9 1.0 0.6 0.2 1.2 0.9 0.8 0.9 0.8 0.9 0.9 1.7 0.9 0.5 0.3 1.1 2.4 4.6 4.4 4.2 3.9 3.0 2.5 2.2 2.0 1.8 1.6 1.3
0.0 0.0 0.0 0.0 0.5 0.2 0.0 0.0 0.0 1.0 0.9 0.4 0.2 1.0 0.8 1.0 0.9 0.4 0.8 1.1 1.0 0.6 1.9 5.9 8.9 9.1 9.2 8.6 6.6 5.4 4.3 3.6 2.9 2.3 1.8 1.3 1.0 0.8
0.0 0.0 0.8 0.8 0.4 0.1 1.2 1.2 1.1 0.8 1.2 1.4 1.2 1.6 6.6 4.0 5.0 6.2 6.8 7.2 8.4 9.5 10.4 9.0 9.6 8.5 7.9 7.5 6.5 4.7 4.1 3.5 2.7 2.4 1.7 1.2 0.7 0.0
1.1 1.0 0.8 0.4 1.7 1.7 1.6 1.2 1.3 2.1 2.0 5.1 12.7 13.9 16.5 15.4 13.6 11.5 9.6 8.7 8.2 8.0 7.5 7.1 6.8 6.6 6.1 6.2 5.4 4.2 3.2 2.3 1.4 0.9 0.2 0.0 0.0 0.1
0.8 0.4 1.5 1.2 1.0 4.3 6.4 3.2 5.9 13.9 15.2 17.9 18.1 18.7 15.5 13.5 12.4 10.9 8.9 8.7 7.7 7.0 5.1 3.5 3.0 2.6 2.6 2.1 1.5 1.2 0.6 0.5 0.0 0.0 0.0 0.1 0.0 0.0
3.5 9.7 15.1 10.5 13.6 15.1 17.1 17.0 16.8 17.0 17.2 16.3 15.4 14.6 13.0 11.4 9.7 7.2 5.7 4.4 3.4 2.5 1.2 0.4 0.0 0.1 0.0 0.2 0.2 0.1 0.0 0.0 0.0 0.1 0.0 0.4 0.1 0.0
14.1 16.3 17.2 16.9 16.2 15.6 15.3 14.2 12.3 10.8 9.6 8.1 7.1 5.9 5.0 3.9 2.7 1.7 1.0 0.8 0.6 0.2 0.1 0.0 0.0 0.0 0.0 0.0 0.0 0.1 0.0 0.2 0.1 0.2 0.1 0.3 0.2 0.1
11.2 10.7 12.7 12.1 11.1 9.5 8.6 7.5 6.9 5.8 3.6 3.5 2.7 2.1 0.6 0.4 0.4 0.1 0.1 0.0 0.0 0.0 0.0 0.0 0.0 0.0 0.2 0.0 0.0 0.0 0.5 0.2 0.1 0.2 0.0 0.3 0.2 0.1
6.5 6.2 6.7 5.7 4.8 4.1 3.7 3.2 2.7 1.8 1.1 0.4 0.2 0.2 0.1 0.1 0.0 0.0 0.0 0.0 0.0 0.0 0.0 0.0 0.0 0.1 0.5 0.6 0.4 0.0 0.0 0.0 0.6 0.2 0.1 1.1 0.1 0.0
4.5 4.2 3.8 3.4 2.9 2.2 1.7 1.0 0.5 0.3 0.0 0.2 0.1 0.1 0.1 0.2 0.1 0.1 0.0 0.0 0.0 0.0 0.0 0.0 0.0 0.0 0.0 0.0 0.5 0.0 0.0 0.1 0.0 0.2 2.0 2.9 0.5 2.5
3.0 2.4 2.1 1.6 0.4 0.2 0.1 0.2 0.2 0.1 0.1 0.0 0.0 0.1 0.1 0.1 0.2 0.1 0.1 0.1 0.0 0.0 0.0 0.0 0.0 0.0 0.1 0.4 0.2 0.4 0.0 0.6 0.1 0.2 1.5 2.8 4.3 5.5
0.8 0.1 0.0 0.1 0.0 0.0 0.0 0.1 0.0 0.0 0.0 0.0 0.0 0.1 0.1 0.2 0.0 0.1 0.2 0.1 0.1 0.0 0.0 0.0 0.0 0.0 0.0 0.0 0.1 0.1 0.0 1.6 0.1 1.3 0.9 0.7 2.1 1.0

GFSNE_prec_kuchsnow24_096.txt.gz
Snowfall_Accumulation
0.0 0.0 0.0 0.0 0.0 0.0 0.0 0.0 0.0 0.0 0.0 0.0 0.0 0.0 0.0 0.0 0.0 0.0 0.0 0.0 0.0 0.0 0.0 0.0 0.0 0.0 0.0 0.0 0.0 0.0 0.0 0.0 0.0 0.0 0.0 0.0 0.0 0.0
0.0 0.0 0.0 0.0 0.0 0.0 0.0 0.0 0.0 0.0 0.0 0.0 0.0 0.0 0.0 0.0 0.0 0.0 0.0 0.0 0.0 0.0 0.0 0.0 0.0 0.0 0.0 0.0 0.0 0.0 0.0 0.0 0.0 0.0 0.0 0.0 0.0 0.0
0.0 0.0 0.0 0.0 0.0 0.0 0.0 0.0 0.0 0.0 0.0 0.0 0.0 0.0 0.0 0.0 0.0 0.0 0.0 0.0 0.0 0.0 0.0 0.0 0.0 0.0 0.0 0.0 0.0 0.0 0.0 0.0 0.0 0.0 0.0 0.0 0.0 0.0
0.0 0.0 0.0 0.0 0.0 0.0 0.0 0.0 0.0 0.0 0.0 0.0 0.0 0.0 0.0 0.0 0.0 0.0 0.0 0.0 0.0 0.0 0.0 0.0 0.0 0.0 0.0 0.0 0.0 0.0 0.0 0.0 0.0 0.0 0.0 0.0 0.0 0.0
0.0 0.0 0.0 0.0 0.0 0.0 0.0 0.0 0.0 0.0 0.0 0.0 0.0 0.0 0.0 0.0 0.0 0.0 0.0 0.0 0.0 0.0 0.0 0.0 0.0 0.0 0.0 0.0 0.0 0.0 0.0 0.0 0.0 0.0 0.0 0.0 0.0 0.0
0.0 0.0 0.0 0.0 0.0 0.0 0.0 0.0 0.0 0.0 0.0 0.0 0.0 0.0 0.0 0.0 0.0 0.0 0.0 0.0 0.0 0.0 0.0 0.0 0.0 0.0 0.0 0.0 0.0 0.0 0.0 0.0 0.0 0.0 0.0 0.0 0.0 0.0
0.0 0.0 0.0 0.0 0.0 0.0 0.0 0.0 0.0 0.0 0.0 0.0 0.0 0.0 0.0 0.0 0.0 0.0 0.0 0.0 0.0 0.0 0.0 0.0 0.0 0.0 0.0 0.0 0.0 0.0 0.0 0.0 0.0 0.0 0.0 0.0 0.0 0.0
0.0 0.0 0.0 0.0 0.0 0.0 0.0 0.0 0.0 0.0 0.0 0.0 0.0 0.0 0.0 0.0 0.0 0.0 0.0 0.0 0.0 0.0 0.0 0.0 0.0 0.0 0.0 0.0 0.0 0.0 0.0 0.0 0.0 0.0 0.0 0.0 0.0 0.0
0.0 0.0 0.0 0.0 0.0 0.0 0.0 0.0 0.0 0.0 0.0 0.0 0.0 0.0 0.0 0.0 0.0 0.0 0.0 0.7 0.6 0.0 0.0 0.0 0.0 0.0 0.0 0.0 0.0 0.0 0.0 0.0 0.0 0.0 0.0 0.0 0.0 0.0
0.0 0.0 0.0 0.0 0.0 0.0 0.0 0.0 0.0 0.0 0.0 0.0 0.0 0.0 0.0 0.0 0.0 0.0 0.0 0.7 0.0 0.6 0.4 0.6 0.8 0.7 0.4 0.0 0.0 0.0 0.0 0.0 0.0 0.0 0.0 0.0 0.1 0.0
0.0 0.0 0.0 0.0 0.0 0.0 0.0 0.0 0.0 0.0 0.0 0.0 0.7 0.3 0.1 0.0 1.2 0.6 0.6 1.2 1.3 0.8 0.4 0.8 0.7 0.7 0.4 1.2 0.7 0.3 0.1 0.6 0.6 0.4 0.3 1.5 1.6 1.7
0.0 0.0 0.0 0.0 0.0 0.0 0.0 0.0 0.0 0.0 0.9 1.0 0.6 0.2 1.2 0.9 0.8 0.9 0.8 0.9 0.9 1.7 0.9 0.5 0.3 1.1 4.8 6.8 6.2 5.7 5.2 4.1 3.5 3.0 2.9 2.9 2.7 2.2
0.0 0.0 0.0 0.0 0.0 0.0 0.0 0.0 0.0 1.0 0.9 0.4 0.2 1.0 0.8 1.0 0.9 0.4 0.8 1.1 1.0 0.6 3.6 7.9 11.5 11.6 12.1 11.8 8.7 6.9 5.6 4.7 3.7 3.0 2.5 2.0 1.7 1.5
0.0 0.0 0.0 0.0 0.0 0.0 1.2 1.2 1.1 0.8 1.2 1.4 1.2 1.6 6.6 4.0 5.0 6.2 6.8 7.4 8.4 9.8 10.8 9.5 9.6 9.4 9.1 8.9 7.9 5.7 4.1 3.5 3.3 3.1 2.3 1.6 1.1 0.2
0.0 0.0 0.0 0.0 1.6 1.7 1.6 1.2 1.3 2.1 2.0 5.1 12.8 14.1 16.8 15.6 13.7 11.6 9.6 8.7 8.2 8.0 7.5 7.1 6.8 6.6 6.1 6.5 5.4 4.6 3.5 2.3 1.4 0.9 0.2 0.0 0.0 0.1
0.0 0.0 1.4 1.2 1.0 4.3 6.4 3.3 5.9 13.9 15.2 18.0 18.1 18.8 15.5 13.5 12.4 10.9 8.9 8.7 7.7 7.0 5.1 3.5 3.0 2.6 2.6 2.1 1.5 1.2 0.6 0.4 0.0 0.0 0.0 0.1 0.0 0.0
3.4 9.6 15.1 10.5 13.6 15.1 17.1 17.0 16.8 17.0 17.2 16.3 15.4 14.6 13.0 11.4 9.7 7.2 5.7 4.4 3.4 2.5 1.2 0.4 0.0 0.1 0.0 0.2 0.2 0.1 0.0 0.0 0.0 0.1 0.0 0.3 0.0 0.0
14.0 16.2 17.1 16.8 16.1 15.6 15.2 14.2 12.3 10.8 9.6 8.1 7.1 5.9 5.0 3.9 2.7 1.7 1.0 0.8 0.6 0.2 0.1 0.0 0.0 0.0 0.0 0.0 0.0 0.0 0.0 0.1 0.1 0.2 0.1 0.3 0.2 0.0
10.9 10.4 12.5 11.9 11.0 9.5 8.6 7.5 6.9 5.8 3.6 3.5 2.7 2.1 0.6 0.4 0.4 0.1 0.1 0.0 0.0 0.0 0.0 0.0 0.0 0.0 0.2 0.0 0.0 0.0 0.0 0.0 0.0 0.0 0.0 0.3 0.1 0.1
6.3 6.1 6.6 5.6 4.8 4.1 3.7 3.2 2.7 1.8 1.1 0.4 0.2 0.1 0.1 0.1 0.0 0.0 0.0 0.0 0.0 0.0 0.0 0.0 0.0 0.1 0.5 0.4 0.1 0.0 0.0 0.0 0.0 0.0 0.0 1.1 0.1 0.0
4.5 4.2 3.8 3.3 2.9 2.2 1.7 0.9 0.4 0.2 0.0 0.1 0.1 0.1 0.1 0.1 0.1 0.0 0.0 0.0 0.0 0.0 0.0 0.0 0.0 0.0 0.0 0.0 0.1 0.0 0.0 0.0 0.0 0.0 1.9 2.8 0.4 2.4
2.9 2.4 2.1 1.6 0.3 0.1 0.0 0.1 0.1 0.1 0.0 0.0 0.0 0.0 0.0 0.1 0.1 0.0 0.0 0.1 0.0 0.0 0.0 0.0 0.0 0.0 0.1 0.2 0.2 0.0 0.0 0.0 0.0 0.0 1.4 2.8 4.3 5.5
0.7 0.1 0.0 0.0 0.0 0.0 0.0 0.0 0.0 0.0 0.0 0.0 0.0 0.0 0.0 0.1 0.0 0.0 0.1 0.1 0.1 0.0 0.0 0.0 0.0 0.0 0.0 0.0 0.1 0.1 0.0 0.2 0.0 1.3 0.9 0.7 2.1 1.0